[[{"header":{"parameterUnit":"m.s-1","parameterCategory":1,"la1":30.6,"la2":29.2853,"lo1":-89.7004,"lo2":-87.6739,"dy":0.0162,"dx":0.0183,"nx":112,"ny":82,"refTime":"2026-02-24T00:00:00:Z","depth":0,"parameterNumber":2,"parameterNumberName":"U-component_of_WINDS"},"data":[0.0,0.0,0.0,0.0,0.0,0.0,0.0,0.0,0.0,0.0,0.0,0.0,0.0,0.0,0.0,0.0,0.0,0.0,0.0,0.0,0.0,0.0,0.0,0.0,0.0,0.0,0.0,0.0,0.0,0.0,0.0,0.0,0.0,0.0,0.0,0.0,0.0,0.0,0.0,0.0,0.0,0.0,0.0,0.0,0.0,0.0,0.0,0.0,0.0,0.0,0.0,0.0,0.0,0.0,0.0,0.0,0.0,0.0,0.0,0.0,0.0,0.0,0.0,0.0,0.0,0.0,0.0,0.0,0.0,0.0,0.0,0.0,0.0,0.0,0.0,0.0,0.0,0.0,0.0,0.0,0.0,0.0,0.0,0.0,0.0,0.0,0.0,0.0,0.0,0.0,0.0,4.9525,5.6143,6.0127,5.9996,5.8127,5.3913,4.6704,0.0,0.0,0.0,0.0,0.0,0.0,0.0,0.0,0.0,0.0,0.0,0.0,0.0,0.0,0.0,0.0,0.0,0.0,0.0,0.0,0.0,0.0,0.0,0.0,0.0,0.0,0.0,0.0,0.0,0.0,0.0,0.0,0.0,0.0,0.0,0.0,0.0,0.0,0.0,0.0,0.0,0.0,0.0,0.0,0.0,0.0,0.0,0.0,0.0,0.0,0.0,0.0,0.0,0.0,0.0,0.0,0.0,0.0,0.0,0.0,0.0,0.0,0.0,0.0,0.0,0.0,0.0,0.0,0.0,0.0,0.0,0.0,0.0,0.0,0.0,0.0,0.0,0.0,0.0,0.0,0.0,0.0,0.0,0.0,0.0,0.0,0.0,0.0,0.0,0.0,0.0,0.0,0.0,0.0,0.0,0.0,0.0,0.0,0.0,0.0,0.0,0.0,0.0,0.0,4.4258,5.42,5.8754,6.1035,6.0819,5.7819,5.3895,4.9144,0.0,0.0,0.0,0.0,0.0,0.0,0.0,0.0,0.0,0.0,0.0,0.0,0.0,0.0,0.0,0.0,0.0,0.0,0.0,0.0,0.0,0.0,0.0,0.0,0.0,0.0,0.0,0.0,0.0,0.0,0.0,0.0,0.0,0.0,0.0,0.0,0.0,0.0,0.0,0.0,0.0,0.0,0.0,0.0,0.0,0.0,0.0,0.0,0.0,0.0,0.0,0.0,0.0,0.0,0.0,0.0,0.0,0.0,0.0,0.0,0.0,0.0,0.0,0.0,0.0,0.0,0.0,0.0,0.0,0.0,0.0,0.0,0.0,0.0,0.0,0.0,0.0,0.0,0.0,0.0,0.0,0.0,0.0,0.0,0.0,0.0,0.0,0.0,0.0,0.0,0.0,0.0,0.0,0.0,0.0,0.0,0.0,0.0,0.0,0.0,0.0,0.0,0.0,4.3945,4.8828,5.7539,6.0243,6.1303,6.1042,5.8219,5.4468,4.974,4.3464,0.0,0.0,0.0,0.0,0.0,0.0,0.0,0.0,0.0,0.0,0.0,0.0,0.0,0.0,0.0,0.0,0.0,0.0,0.0,0.0,0.0,0.0,0.0,0.0,0.0,0.0,0.0,0.0,0.0,0.0,0.0,0.0,0.0,0.0,0.0,0.0,0.0,0.0,0.0,0.0,0.0,0.0,0.0,0.0,0.0,0.0,0.0,0.0,0.0,0.0,0.0,0.0,0.0,0.0,0.0,0.0,0.0,0.0,0.0,0.0,0.0,0.0,0.0,0.0,0.0,0.0,0.0,0.0,0.0,0.0,0.0,0.0,0.0,0.0,0.0,0.0,0.0,0.0,0.0,0.0,0.0,0.0,0.0,0.0,0.0,0.0,0.0,0.0,0.0,0.0,0.0,0.0,0.0,0.0,0.0,0.0,0.0,0.0,0.0,0.0,0.0,0.0,4.9961,5.3672,5.9609,6.1015,6.1392,6.1119,5.8346,5.466,5.0066,4.2799,0.0,0.0,0.0,0.0,0.0,0.0,0.0,0.0,0.0,0.0,0.0,0.0,0.0,0.0,0.0,0.0,0.0,0.0,0.0,0.0,0.0,0.0,0.0,0.0,0.0,0.0,0.0,0.0,0.0,0.0,0.0,0.0,0.0,0.0,0.0,0.0,0.0,0.0,0.0,0.0,0.0,0.0,0.0,0.0,0.0,0.0,0.0,0.0,0.0,0.0,0.0,0.0,0.0,0.0,0.0,0.0,0.0,0.0,0.0,0.0,0.0,0.0,0.0,0.0,0.0,0.0,0.0,0.0,0.0,0.0,0.0,0.0,0.0,0.0,0.0,0.0,0.0,0.0,0.0,0.0,0.0,0.0,0.0,0.0,0.0,0.0,0.0,0.0,0.0,0.0,0.0,0.0,0.0,0.0,0.0,0.0,0.0,0.0,0.0,0.0,0.0,0.0,5.0937,5.6328,6.0,6.1055,6.1424,6.1277,5.7327,5.3685,5.0818,4.197,0.0,0.0,0.0,0.0,0.0,0.0,0.0,0.0,0.0,0.0,0.0,0.0,0.0,0.0,0.0,0.0,0.0,0.0,0.0,0.0,0.0,0.0,0.0,0.0,0.0,0.0,0.0,0.0,0.0,0.0,0.0,0.0,0.0,0.0,0.0,0.0,0.0,0.0,0.0,0.0,0.0,0.0,0.0,0.0,0.0,0.0,0.0,0.0,0.0,0.0,0.0,0.0,0.0,0.0,0.0,0.0,0.0,0.0,0.0,0.0,0.0,0.0,0.0,0.0,0.0,0.0,0.0,0.0,0.0,0.0,0.0,0.0,0.0,0.0,0.0,0.0,0.0,0.0,0.0,0.0,0.0,0.0,0.0,0.0,0.0,0.0,0.0,0.0,0.0,0.0,0.0,0.0,0.0,0.0,0.0,0.0,0.0,0.0,0.0,0.0,0.0,0.0,5.0273,5.5,0.0,6.1445,6.1545,6.1312,5.8758,5.5109,5.0202,0.0,0.0,0.0,0.0,0.0,0.0,0.0,0.0,0.0,0.0,0.0,0.0,0.0,0.0,0.0,0.0,0.0,0.0,0.0,0.0,0.0,0.0,0.0,0.0,0.0,0.0,0.0,0.0,0.0,0.0,0.0,0.0,0.0,0.0,0.0,0.0,0.0,0.0,0.0,0.0,0.0,0.0,0.0,0.0,0.0,0.0,0.0,0.0,0.0,0.0,0.0,0.0,0.0,0.0,0.0,0.0,0.0,0.0,0.0,0.0,0.0,0.0,0.0,0.0,0.0,0.0,0.0,0.0,0.0,0.0,0.0,0.0,0.0,0.0,0.0,0.0,0.0,0.0,0.0,0.0,0.0,0.0,0.0,0.0,0.0,0.0,0.0,0.0,0.0,0.0,0.0,0.0,0.0,0.0,0.0,0.0,0.0,0.0,0.0,0.0,0.0,0.0,4.6562,5.1016,5.5586,0.0,6.1719,6.1584,6.1312,5.8972,5.5182,4.974,0.0,0.0,0.0,0.0,0.0,0.0,0.0,0.0,0.0,0.0,0.0,0.0,0.0,0.0,0.0,0.0,0.0,0.0,0.0,0.0,0.0,0.0,0.0,0.0,0.0,0.0,0.0,0.0,0.0,0.0,0.0,0.0,0.0,0.0,0.0,0.0,0.0,0.0,0.0,0.0,0.0,0.0,0.0,0.0,0.0,0.0,0.0,0.0,0.0,0.0,0.0,0.0,0.0,0.0,0.0,0.0,0.0,0.0,0.0,0.0,0.0,0.0,0.0,0.0,0.0,0.0,0.0,0.0,0.0,0.0,0.0,0.0,0.0,0.0,0.0,0.0,0.0,0.0,0.0,0.0,0.0,0.0,0.0,0.0,0.0,0.0,0.0,0.0,0.0,0.0,0.0,0.0,0.0,0.0,0.0,0.0,0.0,0.0,0.0,0.0,0.0,0.0,4.6953,5.3633,5.8867,6.1445,6.1719,6.1584,6.1351,5.7389,5.3349,0.0,0.0,0.0,0.0,0.0,0.0,0.0,0.0,0.0,0.0,0.0,0.0,0.0,0.0,0.0,0.0,0.0,0.0,0.0,0.0,0.0,0.0,0.0,0.0,0.0,0.0,0.0,0.0,0.0,0.0,0.0,0.0,0.0,0.0,0.0,0.0,0.0,0.0,0.0,0.0,0.0,0.0,0.0,0.0,0.0,0.0,0.0,0.0,0.0,0.0,0.0,0.0,0.0,0.0,0.0,0.0,0.0,0.0,0.0,0.0,0.0,0.0,0.0,0.0,0.0,0.0,0.0,0.0,0.0,0.0,0.0,0.0,0.0,0.0,0.0,0.0,0.0,0.0,0.0,0.0,0.0,0.0,0.0,0.0,0.0,0.0,0.0,0.0,0.0,0.0,0.0,0.0,0.0,0.0,0.0,0.0,0.0,0.0,0.0,0.0,0.0,0.0,0.0,0.0,5.4023,5.9101,6.2265,6.207,6.1857,6.218,5.9359,5.4989,4.8856,0.0,0.0,0.0,0.0,0.0,0.0,0.0,0.0,0.0,0.0,0.0,0.0,0.0,0.0,0.0,0.0,0.0,0.0,0.0,0.0,0.0,0.0,0.0,0.0,0.0,0.0,0.0,0.0,0.0,0.0,0.0,0.0,0.0,0.0,0.0,0.0,0.0,0.0,0.0,0.0,0.0,0.0,0.0,0.0,0.0,0.0,0.0,0.0,0.0,0.0,0.0,0.0,0.0,0.0,0.0,0.0,0.0,0.0,0.0,0.0,0.0,0.0,0.0,0.0,0.0,0.0,0.0,0.0,0.0,0.0,0.0,0.0,0.0,0.0,0.0,0.0,0.0,0.0,0.0,0.0,0.0,0.0,0.0,0.0,0.0,0.0,0.0,0.0,0.0,0.0,0.0,0.0,0.0,0.0,0.0,0.0,0.0,0.0,0.0,0.0,0.0,0.0,4.8086,5.4453,5.9609,6.2656,6.2479,6.2268,6.2585,6.046,5.6302,4.9548,0.0,0.0,0.0,0.0,0.0,0.0,0.0,0.0,0.0,0.0,0.0,0.0,0.0,0.0,0.0,0.0,0.0,0.0,0.0,0.0,0.0,0.0,0.0,0.0,0.0,0.0,0.0,0.0,0.0,0.0,0.0,0.0,0.0,0.0,0.0,0.0,0.0,0.0,0.0,0.0,0.0,0.0,0.0,0.0,0.0,0.0,0.0,0.0,0.0,0.0,0.0,0.0,0.0,0.0,0.0,0.0,0.0,0.0,0.0,0.0,0.0,0.0,0.0,0.0,0.0,0.0,0.0,0.0,0.0,0.0,0.0,0.0,0.0,0.0,0.0,0.0,0.0,0.0,0.0,0.0,0.0,0.0,0.0,0.0,0.0,0.0,0.0,0.0,0.0,0.0,0.0,0.0,0.0,0.0,0.0,0.0,0.0,0.0,0.0,0.0,0.0,0.0,4.8163,5.4961,6.0273,6.2851,6.3021,6.2866,6.273,6.0983,5.7302,5.1202,0.0,0.0,0.0,0.0,0.0,0.0,0.0,0.0,0.0,0.0,0.0,0.0,0.0,0.0,0.0,0.0,0.0,0.0,0.0,0.0,0.0,0.0,0.0,0.0,0.0,0.0,0.0,0.0,0.0,0.0,0.0,0.0,0.0,0.0,0.0,0.0,0.0,0.0,0.0,0.0,0.0,0.0,0.0,0.0,0.0,0.0,0.0,0.0,0.0,0.0,0.0,0.0,0.0,0.0,0.0,0.0,0.0,0.0,0.0,0.0,3.6622,0.0,0.0,0.0,0.0,0.0,0.0,0.0,0.0,0.0,0.0,0.0,0.0,0.0,0.0,0.0,0.0,0.0,0.0,0.0,0.0,0.0,0.0,0.0,0.0,0.0,0.0,0.0,0.0,0.0,0.0,0.0,0.0,0.0,0.0,0.0,0.0,0.0,0.0,0.0,0.0,0.0,4.8982,5.582,6.1133,6.375,6.3915,6.3767,6.3544,6.1835,5.8127,5.2049,0.0,0.0,0.0,0.0,0.0,0.0,0.0,0.0,0.0,0.0,0.0,0.0,0.0,0.0,0.0,0.0,0.0,0.0,0.0,0.0,0.0,0.0,0.0,0.0,0.0,0.0,0.0,0.0,0.0,0.0,0.0,0.0,0.0,0.0,0.0,0.0,0.0,0.0,0.0,0.0,0.0,0.0,0.0,0.0,0.0,0.0,0.0,0.0,0.0,0.0,0.0,0.0,0.0,0.0,0.0,0.0,0.0,0.0,0.0,0.0,0.0,4.0431,0.0,0.0,0.0,0.0,0.0,0.0,0.0,0.0,0.0,0.0,0.0,0.0,0.0,0.0,0.0,0.0,0.0,0.0,0.0,0.0,0.0,0.0,0.0,0.0,0.0,0.0,0.0,0.0,0.0,0.0,0.0,0.0,0.0,0.0,0.0,0.0,0.0,0.0,0.0,0.0,4.977,5.6325,6.1406,6.4023,6.4465,6.4539,6.4422,6.2627,5.9627,5.5241,5.024,0.0,0.0,0.0,0.0,0.0,0.0,0.0,0.0,0.0,0.0,0.0,0.0,0.0,0.0,0.0,0.0,0.0,0.0,0.0,0.0,0.0,0.0,0.0,0.0,0.0,0.0,0.0,0.0,0.0,0.0,0.0,0.0,0.0,0.0,0.0,0.0,0.0,0.0,0.0,0.0,0.0,0.0,0.0,0.0,0.0,0.0,0.0,0.0,0.0,0.0,0.0,0.0,0.0,0.0,0.0,5.2049,5.2856,5.3241,5.301,4.8933,4.7394,4.7509,0.0,0.0,0.0,0.0,0.0,0.0,0.0,0.0,0.0,0.0,0.0,0.0,0.0,0.0,0.0,0.0,0.0,0.0,0.0,0.0,0.0,0.0,0.0,0.0,0.0,4.6471,4.6278,0.0,0.0,0.0,0.0,0.0,0.0,0.0,0.0,0.0,0.0,0.0,0.0,5.0587,5.6898,6.1758,6.4062,6.4903,6.5281,6.5114,6.3397,6.1204,5.8665,5.3472,4.8971,0.0,0.0,0.0,0.0,0.0,0.0,0.0,0.0,0.0,0.0,0.0,0.0,0.0,0.0,0.0,0.0,0.0,0.0,0.0,0.0,0.0,0.0,0.0,0.0,0.0,0.0,0.0,0.0,0.0,0.0,0.0,0.0,3.4007,3.5661,0.0,0.0,0.0,0.0,0.0,0.0,0.0,0.0,0.0,0.0,0.0,0.0,0.0,0.0,4.9317,5.2702,5.4087,5.3549,5.755,5.8704,5.7319,5.8127,5.8511,5.8511,5.8588,0.0,5.1048,4.8355,0.0,0.0,0.0,0.0,0.0,0.0,0.0,0.0,0.0,0.0,0.0,0.0,0.0,0.0,0.0,0.0,0.0,0.0,0.0,0.0,0.0,0.0,5.0779,5.1664,5.2125,5.2087,0.0,4.4586,3.8584,3.7392,0.0,0.0,0.0,0.0,0.0,0.0,0.0,0.0,5.1546,5.8339,6.3086,6.418,6.5457,6.5918,6.5153,6.3897,6.205,5.9511,5.6511,5.3356,5.001,4.5047,0.0,0.0,0.0,0.0,0.0,0.0,0.0,0.0,0.0,0.0,0.0,0.0,0.0,0.0,0.0,0.0,0.0,0.0,0.0,0.0,0.0,0.0,0.0,0.0,0.0,0.0,0.0,0.0,0.0,3.4391,3.7507,3.87,3.8969,3.8469,0.0,0.0,0.0,0.0,0.0,0.0,0.0,0.0,0.0,4.974,5.1164,5.3087,5.5626,5.8511,6.005,6.0204,6.2551,6.3281,6.2589,6.2935,6.3089,6.3128,6.3512,6.2166,5.9435,0.0,5.1587,4.9048,0.0,0.0,0.0,0.0,0.0,0.0,0.0,0.0,0.0,0.0,0.0,0.0,0.0,0.0,0.0,0.0,0.0,0.0,0.0,0.0,0.0,5.5011,5.5703,5.5934,5.5532,5.1896,4.7699,0.0,4.2794,4.0716,3.6598,0.0,0.0,0.0,0.0,0.0,5.3953,5.9472,6.332,6.4219,6.5574,6.6228,6.587,6.4282,6.282,6.1704,5.8819,5.628,5.4318,4.9856,4.5547,0.0,0.0,0.0,0.0,0.0,0.0,0.0,0.0,0.0,0.0,0.0,0.0,0.0,0.0,0.0,0.0,0.0,0.0,0.0,0.0,0.0,0.0,0.0,0.0,0.0,0.0,0.0,0.0,3.7738,4.0893,4.1755,4.297,4.2761,0.0,0.0,0.0,0.0,0.0,0.0,4.774,4.9471,5.1933,5.5357,5.6896,5.8781,6.1127,6.3205,6.4705,6.559,6.6474,6.6974,6.7167,6.7167,6.7167,6.7167,6.7167,6.7051,6.6436,6.0666,5.7049,5.4895,5.2356,0.0,0.0,0.0,5.2433,5.2933,5.5049,5.578,0.0,5.3087,0.0,5.001,4.6201,0.0,0.0,0.0,0.0,4.951,5.2472,0.0,5.6203,5.7896,5.9011,5.9457,5.8649,5.7911,5.5884,0.0,4.9278,4.7174,4.2047,0.0,0.0,0.0,0.0,5.2496,5.6359,6.06,6.3633,6.4531,6.5691,6.6384,6.6396,6.4705,6.3551,6.332,6.0781,5.8781,5.7665,5.4203,5.0394,0.0,0.0,0.0,0.0,0.0,0.0,0.0,0.0,0.0,0.0,0.0,0.0,0.0,0.0,0.0,0.0,0.0,0.0,0.0,0.0,0.0,0.0,0.0,0.0,0.0,0.0,0.0,0.0,0.0,0.0,4.5411,4.7586,0.0,0.0,0.0,0.0,4.7548,4.924,5.1356,5.3933,5.5626,5.8127,6.155,6.2474,6.3782,6.5551,6.6436,6.7359,6.8244,6.909,6.9898,7.0667,7.0667,7.0667,7.0667,7.0667,7.0206,6.9129,6.3974,6.1281,6.0165,5.7588,5.6088,5.5434,5.6357,5.7203,5.805,5.8934,5.9242,5.9358,6.0012,5.7511,5.4203,5.3933,5.2164,0.0,0.0,5.2779,5.4511,5.628,5.7973,5.9704,6.1435,6.2613,6.3113,6.2243,6.15,5.9735,0.0,5.3918,0.0,4.9702,0.0,0.0,4.935,0.0,5.5614,5.8316,6.1815,6.4414,6.543,6.6042,6.6384,6.6396,6.5243,6.4166,6.3358,6.2435,6.1127,5.9435,5.7627,5.5049,5.1587,4.6606,0.0,0.0,0.0,0.0,0.0,0.0,0.0,0.0,0.0,0.0,0.0,0.0,0.0,0.0,0.0,0.0,0.0,0.0,0.0,0.0,0.0,0.0,0.0,0.0,0.0,0.0,0.0,0.0,5.0645,5.2608,0.0,0.0,5.1452,5.199,5.2202,5.4318,5.6703,5.9242,6.0435,6.2358,6.5205,6.6128,6.7398,6.909,6.9937,7.0821,7.1706,7.2014,7.2322,7.2591,7.2591,7.2591,7.2591,7.2591,7.2399,7.1975,6.959,6.7128,6.4705,6.3281,6.2551,6.2281,6.2589,6.2935,6.3243,6.3512,6.3243,6.2666,6.1897,5.9858,5.7703,5.7703,5.7088,5.6549,5.7396,5.8473,5.9627,6.0742,6.1512,6.2089,6.2704,6.3229,6.3538,6.3296,6.3184,6.2683,6.1229,5.841,5.5634,5.3563,5.3935,5.4156,5.3171,5.5941,5.8721,6.0226,6.3038,6.5078,6.5547,6.6159,6.6478,6.642,6.4897,6.3782,6.332,6.2012,6.0973,6.0358,5.9204,5.7242,5.4395,5.1065,4.6013,0.0,0.0,0.0,0.0,0.0,0.0,0.0,0.0,0.0,0.0,0.0,0.0,0.0,0.0,0.0,0.0,0.0,0.0,0.0,0.0,0.0,0.0,0.0,0.0,0.0,0.0,5.201,5.3957,5.6636,5.7519,5.5475,5.6791,5.7786,5.7709,5.9765,6.1882,6.3806,6.4666,6.6128,6.8321,6.9244,7.036,7.1745,7.236,7.3091,7.4014,7.4014,7.4207,7.4553,7.4822,7.4822,7.4553,7.4861,7.463,7.4053,7.3476,7.1745,6.9283,6.7782,6.7013,6.6744,6.6744,6.6744,6.6744,6.6744,6.6167,6.5243,6.4128,6.2627,6.1204,6.1204,6.1012,6.0896,6.1473,6.205,6.2627,6.3166,6.3512,6.3743,6.3782,6.4191,6.4502,6.4343,6.4463,6.452,6.4335,6.1701,5.9022,5.7571,5.7818,5.7964,5.7212,5.9249,6.1266,6.2429,6.4142,6.5417,6.5898,6.6328,6.655,6.6419,6.4902,6.382,6.332,6.1743,6.055,5.9973,5.9127,5.7588,5.5318,5.206,4.7453,4.147,0.0,0.0,0.0,0.0,0.0,0.0,0.0,0.0,0.0,0.0,0.0,0.0,0.0,0.0,0.0,0.0,0.0,0.0,0.0,0.0,0.0,0.0,0.0,4.6059,5.112,5.4997,5.5393,5.971,6.1751,5.9413,6.2121,6.4007,6.4016,6.5558,6.6805,6.7474,6.8347,6.9513,7.0937,7.186,7.2745,7.3591,7.3668,7.4168,7.512,7.512,7.5687,7.6727,7.7535,7.7458,7.6727,7.7564,7.6958,7.5428,7.539,7.4889,7.3773,7.0937,6.9321,6.859,6.859,6.859,6.8552,6.8513,6.7936,6.7205,6.7167,6.6051,6.4743,6.4705,6.4128,6.3474,6.3474,6.3474,6.3474,6.3474,6.4089,6.4743,6.4883,6.5692,6.6294,6.559,6.5572,6.541,6.4594,6.3711,6.2812,6.1914,6.1797,6.1758,6.1601,6.2147,0.0,6.4908,6.5153,6.5533,6.6483,6.6601,6.6543,6.6412,6.5412,6.4345,6.332,6.1704,6.0012,5.8396,5.7511,5.628,5.4626,4.9639,4.586,4.3358,0.0,0.0,0.0,0.0,0.0,0.0,0.0,0.0,0.0,0.0,0.0,0.0,0.0,0.0,0.0,0.0,0.0,0.0,0.0,0.0,0.0,0.0,5.1537,5.1537,5.5165,5.9032,6.2323,6.3919,6.4951,6.539,6.6266,6.6759,6.6655,6.8218,6.95,7.0316,7.1208,7.2069,7.2976,7.4543,7.5456,7.5505,7.6919,7.7766,7.8065,7.7858,7.7987,7.8515,7.8528,7.8542,7.8476,7.8748,7.8554,7.8088,7.7466,7.6671,7.5682,7.3625,7.2646,7.2454,7.2454,7.2415,7.2118,7.0706,7.0129,6.986,6.8475,6.7821,6.7552,6.7398,6.7205,6.7013,6.7013,6.7013,6.7013,6.7013,6.7167,6.7398,6.7577,6.7926,6.8178,6.815,6.7806,6.742,6.7186,6.5898,6.4609,6.375,6.3594,6.3555,6.3398,0.0,0.0,6.5257,6.5727,6.6228,6.6754,6.6836,6.6699,6.6412,6.4986,0.0,0.0,6.0819,5.9665,5.9204,5.8934,5.8011,5.6357,5.1316,4.7491,0.0,0.0,0.0,0.0,0.0,0.0,0.0,0.0,0.0,0.0,0.0,0.0,0.0,0.0,0.0,0.0,0.0,0.0,0.0,0.0,0.0,0.0,5.2918,5.6961,5.8375,6.0384,6.2779,6.5777,6.7109,6.8086,6.8984,6.9726,7.0111,7.0057,7.1292,7.2229,7.2658,7.3847,7.4649,7.4973,7.6739,7.7626,7.7511,7.8634,7.9249,7.9259,7.9121,7.9176,7.9421,7.9621,7.9623,0.0,7.9791,7.9752,7.9392,7.8884,7.8348,0.0,0.0,0.0,0.0,0.0,0.0,7.3735,7.2591,7.2272,7.2172,7.1092,7.0343,6.986,6.9629,6.909,6.8513,6.8436,6.8398,6.8398,6.8398,6.8398,6.8475,6.8732,6.8859,6.8955,6.9211,6.899,6.8711,6.8711,0.0,0.0,6.6562,6.5273,6.4414,6.4687,6.4957,0.0,0.0,6.6488,6.7005,6.7201,6.7687,6.7715,6.7008,0.0,0.0,0.0,0.0,0.0,5.8473,0.0,0.0,0.0,0.0,0.0,0.0,0.0,0.0,0.0,4.4921,4.4647,0.0,0.0,0.0,0.0,0.0,0.0,0.0,0.0,0.0,0.0,0.0,0.0,0.0,0.0,0.0,0.0,5.8001,6.2045,6.5389,6.6051,6.6475,6.7379,6.957,7.1015,7.1133,7.2539,7.3437,7.3437,7.4258,7.4726,0.0,0.0,0.0,0.0,0.0,7.9393,7.9376,7.9506,7.9597,7.9739,7.9701,7.9829,8.0007,8.0786,8.0696,8.0039,8.082,8.0703,7.9999,7.9881,7.978,7.9429,7.6807,7.5288,7.4521,7.4482,7.4399,0.0,0.0,0.0,0.0,7.4062,7.3025,7.1786,7.1596,7.0478,6.9244,6.9052,6.9013,6.8975,6.8975,6.8975,6.9052,6.9425,6.9382,6.9401,6.9759,6.9687,6.9531,6.9531,6.9531,6.9492,6.9492,6.6914,6.5156,6.5898,6.5737,0.0,6.6613,6.7386,6.7852,6.7887,0.0,0.0,6.7942,6.6244,6.473,6.3512,6.1166,5.9127,5.7627,5.6819,5.6357,5.628,5.6165,5.6148,5.6169,5.6246,5.5994,5.5259,4.9644,4.9087,0.0,0.0,0.0,0.0,0.0,0.0,0.0,0.0,0.0,0.0,0.0,0.0,0.0,0.0,0.0,5.7352,6.1679,6.5547,6.8313,6.9885,7.0806,7.0976,7.207,7.3086,7.3789,7.414,7.4336,7.4336,7.5156,7.5937,7.6601,7.7617,0.0,7.8858,8.0011,8.0584,8.0396,8.1254,8.1699,8.1753,0.0,0.0,8.1779,8.1796,8.1781,8.1797,8.1992,8.1953,8.1758,8.105,8.0342,7.9639,7.905,7.835,7.7608,7.7452,7.6931,7.623,7.5337,7.5166,7.5154,7.4278,7.3885,7.3726,7.3508,7.3154,0.0,7.2773,7.2629,7.2514,0.0,7.2514,7.2591,7.2916,7.2463,7.2089,7.2455,7.1445,7.0469,7.0469,6.9922,6.9492,6.9414,6.8867,6.8476,6.8633,6.8383,6.8286,6.8604,6.8665,6.8739,6.8882,6.9249,6.9278,6.8708,6.7114,6.5653,6.4436,6.2627,6.1435,6.1127,6.0935,6.0512,5.9819,5.9127,5.8473,5.7819,5.8473,5.9088,5.955,5.6514,5.5259,0.0,0.0,0.0,0.0,0.0,0.0,0.0,0.0,0.0,0.0,0.0,4.7305,0.0,0.0,5.8272,6.1736,6.5589,6.8778,7.0502,7.2588,7.3633,7.2734,7.3828,7.4765,7.5195,7.5664,7.6094,7.6523,7.6953,7.7578,7.8398,7.9297,7.9883,8.0195,8.1133,8.1612,8.1491,8.2037,8.2304,8.2304,8.2187,8.2187,8.2304,8.219,8.2221,8.2304,8.2304,8.2304,8.2265,8.1836,8.1406,8.1015,8.1015,8.0234,7.9101,7.8984,7.8672,7.8202,7.7693,7.7306,7.6975,7.6427,7.5724,7.5077,7.4843,7.446,7.4017,7.3845,7.3745,7.363,7.3553,7.3553,7.3735,7.3955,7.3751,7.3579,7.3895,7.3281,7.2539,7.2109,7.168,7.125,7.0781,7.0703,7.043,6.957,6.9124,6.8929,6.904,6.9348,6.9572,6.9678,7.0347,7.0463,6.9769,6.7957,6.6436,6.532,6.4474,6.4012,6.4012,6.4012,6.3782,6.3358,6.2935,6.2512,6.2089,6.2512,6.2935,6.332,6.2617,6.1579,0.0,0.0,0.0,0.0,0.0,0.0,0.0,0.0,4.4414,4.7851,5.0351,5.3164,5.7109,5.9805,6.2539,6.6015,6.9023,7.1367,7.2578,7.457,7.543,7.4219,7.5312,7.6211,7.6406,7.7031,7.7812,7.8672,7.8711,7.9101,7.9922,8.0625,8.1094,8.125,8.1914,8.2304,8.2304,8.2304,8.2304,8.2304,8.2304,8.2304,8.2304,8.2304,8.2304,8.2304,8.2304,8.2304,8.2304,8.2304,8.2304,8.2304,8.2304,8.1445,8.0195,8.0039,7.9844,7.9687,7.9687,7.9297,7.8711,7.8711,7.7773,7.6562,7.625,7.5664,7.4985,7.4557,7.4385,7.4322,7.413,7.4235,7.4389,7.4543,7.4571,7.4602,7.4822,7.4726,7.4375,7.3672,7.3555,7.332,7.2617,7.25,7.1914,7.0234,6.9631,6.9412,6.9412,6.9975,7.0429,7.0459,7.1368,7.1533,7.0521,6.8899,6.7475,6.6436,6.6397,6.6397,6.6397,6.6397,6.6397,6.6397,6.6397,6.6397,6.6397,6.6551,6.6628,6.6667,6.7667,6.709,4.2285,4.0078,0.0,4.3086,4.3476,4.4805,0.0,0.0,5.2383,5.5898,5.7461,5.9023,6.1797,6.3789,6.6133,6.957,7.1094,7.2695,7.5117,7.5703,7.6094,7.668,7.6953,7.7344,7.8125,7.8281,7.8672,7.9492,7.957,7.9922,8.082,8.0937,8.1367,8.2148,8.2265,8.2304,8.2304,8.2304,8.2304,8.2304,8.2304,8.2304,8.2304,8.2304,8.2304,8.2304,8.2304,8.2304,8.2304,8.2304,8.2304,8.2304,8.2304,8.2187,8.1914,8.1133,8.0351,7.9687,7.9687,7.9648,7.957,7.957,7.9414,7.914,7.8398,7.7969,7.7578,7.6788,7.642,7.6275,7.6275,7.6275,7.6352,7.6544,7.5976,7.5523,7.5716,7.5156,7.457,7.4453,7.4453,7.4414,7.4336,7.4297,7.3711,7.1992,7.1433,7.1215,7.1236,7.1129,7.1178,7.1325,7.1597,7.1343,7.0314,6.9872,6.9179,6.8205,6.8129,6.8129,6.8129,6.8129,6.8129,6.8129,6.8129,6.8129,6.8129,6.8898,6.9283,6.9321,7.1079,7.0259,4.7996,0.0,0.0,0.0,4.9961,5.207,5.5312,5.6289,5.7305,6.0273,6.1562,6.2969,6.5547,6.7422,6.9219,0.0,7.3047,7.4648,7.5742,7.6328,7.6601,7.6445,7.6875,7.7539,7.8437,7.8515,7.9023,8.0351,8.0469,8.0859,8.1719,8.1758,8.1914,8.2304,8.2304,8.2304,8.2304,8.2304,8.2304,8.2304,8.2304,8.2304,8.2304,8.2304,8.2304,8.2304,8.2304,8.2304,8.2304,8.2304,8.2304,8.2304,8.2304,8.2304,8.2265,8.1875,8.1523,8.1211,8.1211,8.0898,8.0469,8.0469,8.0117,7.9648,7.9297,7.914,7.8984,7.8476,7.8272,7.8196,7.8127,7.8142,7.8228,7.8305,7.7796,7.7326,7.7378,7.6719,7.5976,7.5469,7.5351,7.5195,7.4687,7.4609,7.4331,7.3626,7.3196,7.2962,7.297,7.2773,7.2783,7.3087,7.3273,7.3104,7.2471,7.2352,7.2014,7.1398,7.136,7.136,7.136,7.136,7.136,7.136,7.136,7.136,7.136,7.1822,7.208,7.2118,7.2965,7.2723,5.0894,0.0,0.0,5.2578,5.543,5.8125,5.8594,6.0078,6.1914,6.3984,6.4922,6.6094,6.8476,7.0078,0.0,7.2539,7.4726,7.625,7.625,7.6797,7.6875,7.6015,7.625,7.6914,7.8047,7.8555,7.9414,8.0898,8.1211,8.164,8.2265,8.2304,8.2304,8.2304,8.2304,8.2304,8.2304,8.2304,8.2304,8.2304,8.2304,8.2304,8.2304,8.2304,8.2304,8.2304,8.2304,8.2304,8.2304,8.2304,8.2304,8.2304,8.2304,8.2304,8.2304,8.2304,8.2304,8.2304,8.2304,8.1875,8.1367,8.1367,8.0937,8.0351,8.0117,8.0078,7.9961,7.9609,7.9492,7.945,7.9353,7.9392,7.9481,7.9481,7.9159,7.8828,7.8828,7.8359,7.7656,7.6797,7.6601,7.6328,7.5469,7.5312,7.5337,7.5301,7.4972,7.4536,7.406,7.3822,7.3812,7.4173,7.4411,7.4403,7.4119,7.4027,7.3899,7.3591,7.3553,7.3514,7.3514,7.3514,7.3514,7.3514,7.3514,7.3514,7.3591,7.3966,7.4268,7.4586,7.5,7.5379,0.0,0.0,5.2226,5.5586,5.9023,6.1992,6.3672,6.539,6.6914,6.7851,6.8047,6.8594,7.0312,7.1367,7.2539,7.4258,7.6015,7.7148,7.7148,7.7187,7.6875,7.6015,7.5195,7.5351,0.0,7.8711,8.0039,8.0937,8.1797,8.2265,8.2304,8.2304,8.2304,8.2304,8.2304,8.2304,8.2304,8.2304,8.2304,8.2304,8.2304,8.2304,8.2304,8.2304,8.2304,8.2304,8.2304,8.2304,8.2304,8.2304,8.2304,8.2304,8.2304,8.2304,8.2304,8.2304,8.2304,8.2304,8.2304,8.2265,8.2265,8.2265,8.2226,8.207,8.1211,8.0976,8.0781,7.9922,7.9687,7.9687,7.9687,7.9687,7.9687,7.9687,7.9687,7.9648,7.9648,7.9648,7.9375,7.8594,7.8437,7.8125,7.7265,7.7109,7.7133,7.7105,7.6777,7.5913,7.4225,7.3832,7.3779,7.4,7.4179,7.4297,7.4297,7.4109,7.3918,7.3793,7.363,7.3514,7.3514,7.3514,7.3514,7.3514,7.3514,7.3591,7.3773,7.4581,7.5523,7.6558,7.7587,7.8489,0.0,0.0,5.793,6.0273,6.3437,6.6172,6.6758,6.7734,6.8633,6.8984,6.8594,6.8359,6.8945,7.0195,7.1523,7.2695,7.5312,7.7383,7.7969,7.8515,7.8125,7.6133,7.664,0.0,0.0,0.0,0.0,8.0859,8.1289,8.1679,8.2265,8.2304,8.2304,8.2304,8.2304,8.2304,8.2304,8.2304,8.2304,8.2304,8.2304,8.2304,8.2304,8.2304,8.2304,8.2304,8.2304,8.2304,8.2304,8.2304,8.2304,8.2304,8.2304,8.2304,8.2304,8.2304,8.2304,8.2304,8.2304,8.2304,8.2304,8.2304,8.2304,8.2265,8.1953,8.1875,8.1797,8.1523,8.1445,8.1445,8.1445,8.1445,8.1445,8.1445,8.0976,8.0547,8.0547,8.0117,7.9609,7.9336,7.9297,7.9219,7.8906,7.8867,7.8774,7.8507,7.7408,7.6289,7.5466,7.5399,7.5512,7.5707,7.5923,7.6015,7.6015,7.5857,7.5653,7.5466,7.5822,7.6015,7.6015,7.6515,7.6823,7.6823,7.6938,7.7044,7.7121,7.7651,7.81,7.8471,7.8946,7.9359,0.0,5.9414,6.2344,6.4726,6.7461,6.957,6.957,7.0195,7.0547,6.9648,6.8789,6.8086,6.7773,6.8359,6.957,7.164,7.4414,7.6797,7.8281,7.8945,7.8555,7.6601,7.707,0.0,0.0,0.0,0.0,8.0351,8.082,8.1367,8.2265,8.2304,8.2304,8.2304,8.2304,8.2304,8.2304,8.2304,8.2304,8.2304,8.2304,8.2304,8.2304,8.2304,8.2304,8.2304,8.2304,8.2304,8.2304,8.2304,8.2304,8.2304,8.2304,8.2304,8.2304,8.2304,8.2304,8.2304,8.2304,8.2304,8.2304,8.2304,8.2304,8.2304,8.2304,8.2304,8.2304,8.2304,8.2304,8.2304,8.2304,8.2304,8.2304,8.2304,8.1875,8.1445,8.1445,8.1015,8.0547,8.0234,8.0156,8.0078,7.9765,7.9687,7.9555,7.9155,7.8201,7.7361,7.6938,7.7015,7.7198,7.7429,7.7594,7.7755,7.789,7.7726,7.7501,7.7333,7.766,7.7784,7.7707,7.8207,7.8515,7.8622,7.8738,7.8853,7.8998,7.9259,7.961,7.9989,8.0113,8.0328,5.9726,6.2617,6.543,6.8867,7.0937,7.2109,7.207,7.2656,7.2422,6.9805,6.8515,6.7578,0.0,0.0,6.6836,7.1015,7.3359,7.5586,7.8203,7.8633,7.8359,0.0,0.0,0.0,0.0,0.0,0.0,7.9648,0.0,8.1328,8.2265,8.2304,8.2304,8.2304,8.2304,8.2304,8.2304,8.2304,8.2304,8.2304,8.2304,8.2304,8.2304,8.2304,8.2304,8.2304,8.2304,8.2304,8.2304,8.2304,8.2304,8.2304,8.2304,8.2304,8.2304,8.2304,8.2304,8.2304,8.2304,8.2304,8.2304,8.2304,8.2304,8.2304,8.2304,8.2304,8.2304,8.2304,8.2304,8.2304,8.2304,8.2304,8.2304,8.2304,8.2304,8.2304,8.2304,8.2304,8.207,8.1211,8.1054,8.0781,7.9961,7.9844,7.9711,7.9272,7.9221,7.9062,7.8554,7.8477,7.8661,7.9066,7.9096,7.9266,7.9647,7.9492,7.9322,7.9114,7.896,7.8776,7.8554,7.8631,7.8707,7.893,7.893,7.9152,7.9528,7.9538,8.0067,8.1054,8.1054,8.1523,6.332,6.6601,6.9609,7.1797,7.3125,7.3789,7.3125,7.2148,7.0625,6.8086,6.5312,6.2695,0.0,0.0,0.0,6.6836,7.1914,0.0,7.9023,8.0508,0.0,0.0,0.0,7.9297,7.8281,7.8711,0.0,0.0,8.0273,8.0703,8.2226,8.2304,8.2304,8.2304,8.2304,8.2304,8.2304,8.2304,8.2304,8.2304,8.2304,8.2304,8.2304,8.2304,8.2304,8.2304,8.2304,8.2304,8.2304,8.2304,8.2304,8.2304,8.2304,8.2304,8.2304,8.2304,8.2304,8.2304,8.2304,8.2304,8.2304,8.2304,8.2304,8.2304,8.2304,8.2304,8.2304,8.2304,8.2304,8.2304,8.2304,8.2304,8.2304,8.2304,8.2304,8.2304,8.2304,8.2304,8.2226,8.1992,8.1953,8.1914,8.1679,8.164,8.1508,8.1116,8.1025,8.0439,7.8707,7.8477,7.8592,7.8823,7.8998,7.9188,7.9452,7.9414,7.9293,7.9116,7.952,7.97,7.9477,8.0246,8.0669,8.0708,8.1047,8.1239,8.1347,8.1501,8.1686,8.1953,8.1953,8.2109,6.6992,7.0078,7.2734,7.4101,7.4531,7.418,7.2539,7.1133,6.8906,6.4453,6.164,0.0,0.0,0.0,0.0,0.0,0.0,0.0,7.918,8.0859,8.1367,0.0,8.0703,0.0,7.9687,8.0,8.0625,0.0,0.0,8.0859,8.2226,8.2304,8.2304,8.2304,8.2304,8.2304,8.2304,8.2304,8.2304,8.2304,8.2304,8.2304,8.2304,8.2304,8.2304,8.2304,0.0,8.2304,8.2304,8.2304,8.2304,8.2304,8.2304,8.2304,8.2304,8.2304,8.2304,8.2304,8.2304,8.2304,8.2304,8.2304,8.2304,8.2304,8.2304,8.2304,8.2304,8.2304,8.2248,8.2167,8.2297,8.2226,8.2187,8.2265,8.2304,8.2304,8.2304,8.2304,8.2304,8.2304,8.2304,8.2304,8.2304,8.2304,8.2171,8.1739,8.1683,8.117,7.9823,7.9631,7.9708,7.9939,8.0138,8.0325,8.0506,8.0625,8.0579,8.0376,8.0616,8.0708,8.0516,8.1093,8.1427,8.1553,8.1841,8.2019,8.2141,8.2221,8.2304,8.2304,8.2304,8.25,7.0625,7.3125,7.5156,7.6015,7.5508,7.4062,7.1328,6.9648,6.6797,6.0351,0.0,0.0,5.3945,0.0,5.8515,6.4297,0.0,7.3789,7.8984,8.0469,8.1054,8.1172,8.1172,8.1172,8.1172,8.1172,8.1484,8.2226,8.1601,8.1484,8.2265,8.2304,8.2304,8.2304,8.2304,8.2304,8.2304,8.2304,8.2304,8.2304,8.2304,8.2304,8.2304,8.2304,8.2304,8.2304,0.0,0.0,8.2304,8.2304,8.2304,8.2304,8.2304,8.2304,8.2304,8.2304,8.2304,8.2304,8.2304,8.2304,8.2304,8.2304,8.2304,8.2304,8.2304,8.2304,8.2304,8.2304,8.2169,8.2065,8.2257,8.2182,8.207,8.2265,8.2304,8.2304,8.2304,8.2304,8.2304,8.2304,8.2304,8.2304,8.2304,8.2304,8.2175,8.1805,8.1717,8.1554,8.117,8.1131,8.117,8.1323,8.1554,8.1779,8.1933,8.2187,8.2226,8.1992,8.1794,8.16,8.147,8.1439,8.1528,8.1753,8.1925,8.2124,8.2304,8.2304,8.2344,8.2461,8.2461,8.2929,7.4062,7.5859,7.6953,7.7812,7.6836,7.4805,7.1445,6.7305,0.0,0.0,0.0,5.2187,5.1055,5.3984,0.0,6.2695,0.0,0.0,0.0,0.0,8.1289,0.0,0.0,0.0,0.0,0.0,0.0,0.0,0.0,0.0,8.2304,8.2304,8.2304,8.2304,8.2304,8.2304,8.2304,8.2304,8.2304,8.2304,8.2304,8.2304,8.2304,8.2304,8.2304,8.2304,0.0,0.0,8.2304,8.2304,8.2304,8.2304,8.2304,8.2304,8.2304,8.2304,8.2304,8.2304,8.2304,8.2304,8.2304,8.2304,8.2304,8.2304,8.2304,8.2304,8.2304,8.2304,8.2256,8.2249,8.2311,8.2286,8.2265,8.2304,8.2304,8.2304,8.2304,8.2304,8.2304,8.2304,8.2304,8.2304,8.2304,8.2304,8.2226,8.1985,8.1796,8.1593,8.1362,8.1208,8.1093,8.1131,8.1477,8.1697,8.1739,8.2076,8.2226,8.1992,8.1828,8.1669,8.1624,8.1662,8.1762,8.1919,8.2156,8.2289,8.2304,8.2304,8.2656,8.3359,8.3359,8.3828,7.5811,7.7539,7.8515,7.8515,7.6523,7.3281,6.8476,0.0,0.0,0.0,0.0,4.9687,4.8398,0.0,0.0,0.0,0.0,0.0,0.0,0.0,0.0,0.0,0.0,0.0,0.0,0.0,0.0,0.0,0.0,0.0,0.0,8.2304,8.2304,8.2304,8.2304,8.2304,8.2304,8.2304,8.2304,8.2304,8.2304,8.2304,8.2304,8.2304,8.2304,8.2344,0.0,0.0,0.0,8.3476,8.3633,8.3633,8.3633,8.3633,8.3633,8.3633,8.3633,8.3633,8.3633,8.3633,8.3633,8.3633,8.3047,8.2304,8.2304,8.2304,8.2304,8.2304,8.2226,8.2159,8.229,8.222,8.2195,8.2295,8.2304,8.2304,8.2304,8.2304,8.2304,8.2304,8.2304,8.2304,8.2304,8.2304,8.2226,8.2031,8.1844,8.162,8.1424,8.1208,8.1093,8.1093,8.1362,8.1567,8.1687,8.1987,8.2148,8.2148,8.1964,8.1881,8.1847,8.1855,8.1893,8.2009,8.263,8.2969,8.2969,8.3437,8.3867,8.4297,8.4297,8.4726,7.6844,7.8555,7.9531,7.8906,7.6015,7.1719,6.5664,6.1211,0.0,0.0,0.0,0.0,0.0,0.0,0.0,0.0,0.0,0.0,0.0,0.0,0.0,0.0,0.0,0.0,0.0,0.0,0.0,0.0,0.0,0.0,0.0,8.2304,8.2304,8.2304,8.2304,8.2304,8.2304,8.2304,8.2383,8.2578,8.2578,8.2695,8.2851,8.2851,8.2851,8.289,0.0,0.0,0.0,8.4609,8.4883,8.4883,8.4883,8.4883,8.4883,8.4883,8.4883,8.4883,8.4883,8.4883,8.4883,8.4883,8.3984,8.2812,8.2656,8.2578,8.2539,8.2344,8.2187,8.209,8.2261,8.2172,8.2086,8.2246,8.2304,8.2304,8.2304,8.2304,8.2304,8.2304,8.2304,8.2304,8.2304,8.2304,8.2265,8.2109,8.185,8.164,8.1484,8.1246,8.1093,8.1093,8.1285,8.1473,8.1699,8.1883,8.2109,8.2304,8.2109,8.2117,8.2336,8.2304,8.2391,8.2636,8.3467,8.3867,8.3867,8.457,8.5,8.5195,8.5195,8.5664,7.743,7.9023,7.9687,7.9609,7.6406,7.1719,6.5664,0.0,0.0,0.0,4.7656,4.6719,4.7344,0.0,0.0,0.0,0.0,0.0,0.0,0.0,0.0,0.0,0.0,0.0,0.0,0.0,0.0,0.0,0.0,0.0,0.0,8.2304,8.2304,8.2304,8.2304,8.2304,8.2304,8.2304,8.2695,8.3476,8.3476,8.3906,8.4648,8.4648,8.4648,8.4687,0.0,0.0,0.0,8.4883,8.4883,8.4883,8.4883,8.4883,8.4883,8.4883,8.4883,8.4883,8.4883,8.4883,8.4883,8.4883,8.4804,8.4492,8.3711,8.3476,8.332,8.2539,8.2304,8.2265,8.2297,8.2295,8.2297,8.2304,8.2304,8.2304,8.2304,8.2304,8.2304,8.2304,8.2304,8.2304,8.2304,8.2304,8.2304,8.2265,8.1928,8.1679,8.1677,8.1323,8.1093,8.1093,8.1285,8.147,8.1677,8.1867,8.2109,8.2304,8.2109,8.2421,8.3428,8.3268,8.363,8.4596,8.4726,8.4765,8.4765,8.4844,8.5312,8.6094,8.6094,8.6562,7.7378,7.9453,8.0351,7.9844,7.6094,7.0781,6.4219,0.0,0.0,4.832,4.6797,4.6406,4.6758,4.7812,0.0,0.0,0.0,0.0,0.0,0.0,0.0,0.0,0.0,0.0,0.0,0.0,0.0,0.0,0.0,0.0,0.0,0.0,8.2304,8.2304,8.2304,8.2304,8.2304,8.2304,8.2461,8.2812,8.3359,8.3789,8.414,8.4648,8.4883,0.0,0.0,0.0,0.0,8.625,8.6445,8.6445,8.6445,8.6445,8.6445,8.6445,8.6445,8.6445,8.6445,8.6445,8.6445,8.6445,8.6445,8.6211,8.4804,8.4375,8.4297,8.3945,8.3867,8.3867,8.3867,8.3867,8.3711,8.3203,8.3086,8.2929,8.2422,8.2304,8.2461,8.2969,8.2656,8.2617,8.3672,8.3437,8.3242,8.3789,8.3068,8.265,8.3141,8.2401,8.2016,8.2554,8.1785,8.1554,8.2394,8.2569,8.2951,8.3828,8.3789,8.3945,8.4375,8.4294,8.4442,8.4883,8.5429,8.5664,8.5664,8.6211,8.664,8.6992,8.7461,8.789,7.5781,7.8398,7.9726,7.9101,7.5273,6.9805,0.0,0.0,5.2539,4.7344,4.6289,4.6289,4.6289,4.6992,4.8555,0.0,0.0,0.0,0.0,0.0,0.0,0.0,0.0,0.0,0.0,0.0,0.0,0.0,0.0,0.0,0.0,0.0,8.2304,8.2304,8.2304,8.2304,8.2304,8.2304,8.2422,8.2695,8.332,8.3867,8.4375,8.5,0.0,0.0,0.0,0.0,0.0,8.7265,8.75,8.75,8.75,8.75,8.75,8.75,8.75,8.75,8.75,8.75,8.75,8.75,8.75,8.7265,8.6054,8.5508,8.5234,8.4961,8.4883,8.4883,8.4883,8.4883,8.4765,8.414,8.3984,8.3828,8.3203,8.3086,8.3242,8.3867,8.3476,8.3476,8.4687,8.4375,8.4179,8.4804,8.4035,8.3582,8.4142,8.3285,8.2901,8.3516,8.2554,8.2208,8.3163,8.3324,8.375,8.4765,8.4883,8.5039,8.5273,8.5273,8.539,8.5664,8.6289,8.6562,8.6601,8.7422,8.7851,8.7851,8.8711,8.9062,7.2187,7.5273,7.7226,7.7226,7.3945,6.8906,0.0,5.7109,5.2539,4.7344,4.6289,4.6289,4.6289,4.6992,4.8164,4.9922,0.0,0.0,0.0,0.0,0.0,0.0,0.0,0.0,0.0,0.0,0.0,0.0,0.0,0.0,0.0,0.0,8.2304,8.2304,8.2304,8.2304,8.2304,8.2304,8.2734,8.3594,8.3594,8.4492,8.6172,8.6172,0.0,0.0,0.0,0.0,0.0,8.75,8.75,8.75,8.75,8.75,8.75,8.75,8.75,8.75,8.75,8.75,8.75,8.75,8.75,8.75,8.7461,8.6875,8.6015,8.5156,8.4883,8.4883,8.4883,8.4883,8.4883,8.4883,8.4883,8.4883,8.4883,8.4883,8.4883,8.4883,8.4883,8.4883,8.4883,8.4883,8.4883,8.4883,8.4503,8.4164,8.4181,8.3824,8.3593,8.3593,8.3555,8.3632,8.3856,8.4061,8.4295,8.4608,8.4804,8.5273,8.6133,8.6172,8.6601,8.7461,8.7461,8.75,8.75,8.8281,8.8672,8.8711,8.957,9.0,6.7031,6.9922,7.1601,7.0469,6.8242,6.4844,5.9101,5.5351,5.1836,4.7226,4.6289,4.6289,4.6289,4.6523,4.8047,5.2148,0.0,0.0,0.0,0.0,0.0,0.0,0.0,0.0,0.0,0.0,0.0,0.0,0.0,0.0,0.0,0.0,0.0,8.2304,8.2304,8.2304,8.2304,8.289,8.3047,8.2734,8.3906,8.4765,8.5312,0.0,0.0,0.0,0.0,0.0,0.0,8.75,8.75,8.75,8.75,8.75,8.75,8.75,8.75,8.75,8.75,8.75,8.75,8.75,8.75,8.75,8.75,8.7304,8.7031,8.6758,8.6679,8.6679,8.6679,8.6679,8.6523,8.5937,8.5781,8.5625,8.5039,8.4883,8.5078,8.5664,8.5312,8.5273,8.6484,8.6172,8.5976,8.6601,8.5927,8.5531,8.5899,8.5241,8.4824,8.5247,8.5324,8.517,8.4818,8.4986,8.5447,8.6248,8.6523,8.6797,8.707,8.7109,8.7226,8.75,8.75,8.7773,8.832,8.8594,8.9297,9.0469,9.0742,9.1211,0.0,6.5508,6.7305,6.6601,6.4844,6.2031,5.7226,5.4101,5.1094,4.7109,4.6289,4.6289,4.6289,4.6562,4.7851,5.1055,0.0,0.0,0.0,0.0,0.0,0.0,0.0,0.0,0.0,0.0,0.0,0.0,0.0,0.0,0.0,0.0,0.0,8.2773,8.2461,8.2304,8.2304,8.2851,8.2851,8.2304,8.3398,8.4258,8.4922,0.0,0.0,0.0,0.0,0.0,0.0,8.75,8.75,8.75,8.75,8.75,8.75,8.75,8.75,8.75,8.75,8.75,8.75,8.75,8.75,8.75,8.75,8.75,8.75,8.75,8.75,8.75,8.75,8.75,8.7344,8.6836,8.6679,8.6523,8.6015,8.5898,8.6054,8.6601,8.625,8.6211,8.7304,8.7031,8.6875,8.7422,8.6836,8.6471,8.6776,8.6161,8.5786,8.6055,8.6094,8.594,8.5555,8.5819,8.6286,8.6925,8.7297,8.75,8.75,8.75,8.75,8.75,8.7812,8.8203,8.8711,8.9375,9.039,9.1797,9.1797,9.207,0.0,6.1484,6.3633,6.4336,6.2734,5.9883,5.5781,5.2969,0.0,4.6992,4.6289,4.6367,0.0,0.0,0.0,0.0,0.0,0.0,0.0,0.0,0.0,0.0,0.0,0.0,0.0,0.0,0.0,0.0,0.0,0.0,0.0,0.0,0.0,0.0,8.2734,8.2344,8.2383,8.2383,8.2344,8.2304,8.2344,8.3242,8.4804,0.0,0.0,0.0,0.0,0.0,0.0,8.75,8.75,8.75,8.75,8.75,8.75,8.75,8.75,8.75,8.75,8.75,8.75,8.75,8.75,8.75,8.75,8.75,8.75,8.75,8.75,8.75,8.75,8.75,8.75,8.75,8.75,8.75,8.75,8.75,8.75,8.75,8.75,8.75,8.75,8.75,8.75,8.75,8.7304,8.7049,8.6826,8.6636,8.6401,8.6132,8.617,8.6209,8.6209,8.6555,8.677,8.6783,8.7219,8.75,8.7578,8.7578,8.7617,8.7695,8.8476,8.8867,8.8906,9.0586,9.1797,9.2617,9.2617,9.2617,5.0976,0.0,5.5156,5.4101,5.3828,5.3203,0.0,0.0,0.0,0.0,0.0,0.0,0.0,0.0,0.0,0.0,0.0,0.0,0.0,0.0,0.0,0.0,0.0,0.0,0.0,0.0,0.0,0.0,0.0,0.0,0.0,0.0,0.0,0.0,8.2422,8.2617,8.3281,8.3281,8.2969,8.2304,8.2969,8.3515,0.0,0.0,0.0,0.0,0.0,0.0,0.0,8.75,8.75,8.75,8.75,8.75,8.75,8.75,8.75,8.75,8.75,8.75,8.75,8.75,8.75,8.75,8.75,8.75,8.75,8.75,8.75,8.75,8.75,8.75,8.75,8.75,8.75,8.75,8.75,8.75,8.75,8.75,8.75,8.75,8.75,8.75,8.75,8.75,8.7461,8.7245,8.6826,8.6752,8.6555,8.617,8.6709,8.7094,8.7094,8.6748,8.6655,8.6783,8.7063,8.7578,8.8398,8.8437,8.8711,8.9414,9.0234,9.0703,9.0703,9.1758,9.2383,9.2617,9.2617,9.2617,4.7578,5.0156,5.2578,5.207,5.1953,5.1641,0.0,0.0,0.0,0.0,0.0,0.0,0.0,0.0,0.0,0.0,0.0,0.0,0.0,0.0,0.0,0.0,0.0,0.0,0.0,0.0,0.0,0.0,0.0,0.0,0.0,0.0,0.0,0.0,0.0,8.2539,8.3008,8.3008,8.2773,8.2304,8.2773,8.3203,0.0,0.0,0.0,0.0,0.0,0.0,8.6914,8.6914,8.7148,8.75,8.75,8.75,8.75,8.75,8.75,8.75,8.75,8.75,8.75,8.75,8.75,8.75,8.75,8.75,8.75,8.75,8.75,8.75,8.75,8.75,8.75,8.75,8.75,8.75,8.75,8.75,8.75,8.75,8.75,8.75,8.75,8.75,8.75,8.75,8.7812,8.7909,8.7448,8.7719,8.7748,8.7325,8.7709,8.7979,8.7979,8.7709,8.7627,8.7924,8.8149,8.8594,8.9258,8.9297,8.9726,9.0586,9.1054,9.1484,9.1914,9.2383,9.2617,9.2617,9.2617,9.2617,4.6797,4.9726,5.2734,5.2812,5.2461,5.1875,0.0,0.0,0.0,0.0,0.0,0.0,0.0,0.0,0.0,0.0,0.0,0.0,0.0,0.0,0.0,0.0,0.0,0.0,0.0,0.0,0.0,0.0,0.0,0.0,0.0,0.0,0.0,0.0,0.0,0.0,8.2304,8.2304,8.2304,8.2304,8.2304,8.2695,8.3398,0.0,0.0,0.0,0.0,0.0,8.6015,8.6133,8.664,8.7304,8.7461,8.75,8.75,8.75,8.75,8.75,8.75,8.75,8.75,8.75,8.75,8.75,8.75,8.75,8.75,8.75,8.75,8.75,8.75,8.75,8.75,8.75,8.75,8.75,8.75,8.75,8.7539,8.7656,8.7695,8.7734,8.7851,8.789,8.789,8.789,8.8476,8.8768,8.8328,8.8892,8.9133,8.8748,8.8786,8.8863,8.8863,8.9017,8.9244,8.9585,8.965,8.9801,9.0195,9.0312,9.0742,9.1484,9.1484,9.1875,9.2617,9.2617,9.2617,9.2617,9.2734,9.2812,4.8984,5.1133,5.1875,4.8359,4.8476,4.9062,0.0,0.0,0.0,0.0,0.0,0.0,0.0,0.0,0.0,0.0,0.0,0.0,0.0,0.0,0.0,0.0,0.0,0.0,0.0,0.0,0.0,0.0,0.0,0.0,0.0,0.0,0.0,0.0,0.0,0.0,0.0,8.2304,8.2304,8.2304,8.2304,8.2383,8.2539,8.3242,0.0,0.0,0.0,0.0,8.5156,8.5898,8.6289,8.6484,8.7226,8.75,8.75,8.75,8.75,8.75,8.75,8.75,8.75,8.75,8.75,8.75,8.75,8.75,8.75,8.75,8.75,8.75,8.75,8.75,8.75,8.75,8.75,8.75,8.75,8.75,8.7695,8.8398,8.8515,8.875,8.9492,8.9609,8.9609,8.9609,8.9726,8.9627,8.9162,8.9212,8.9137,8.8748,8.9325,8.971,8.971,9.0402,9.0902,9.1168,9.0026,8.9887,9.1054,9.1797,9.2265,9.2383,9.2383,9.2461,9.2617,9.2617,9.2617,9.2617,9.3359,9.3711,4.7773,4.9336,5.0273,4.8789,5.0742,0.0,0.0,0.0,0.0,0.0,0.0,0.0,0.0,0.0,0.0,0.0,0.0,0.0,0.0,0.0,0.0,0.0,0.0,0.0,0.0,0.0,0.0,0.0,0.0,0.0,0.0,0.0,0.0,0.0,0.0,0.0,0.0,8.2304,8.2304,8.2304,8.2304,8.2304,8.2304,8.2695,8.289,0.0,0.0,8.375,8.4258,8.5156,8.5781,8.6289,8.7148,8.75,8.75,8.75,8.75,8.75,8.75,8.75,8.75,8.75,8.75,8.75,8.75,8.75,8.75,8.75,8.75,8.75,8.75,8.75,8.75,8.75,8.75,8.75,8.75,8.75,8.7734,8.8554,8.8711,8.8984,8.9844,9.0,9.0,9.0,9.039,9.0525,9.0057,9.04,9.0556,9.0094,9.0364,9.0594,9.0594,9.0979,9.1336,9.1696,9.1169,9.1219,9.1953,9.2383,9.2617,9.2617,9.2617,9.2617,9.2617,9.2617,9.2851,9.332,9.3711,9.414,4.7266,4.8164,0.0,0.0,0.0,0.0,0.0,0.0,0.0,0.0,0.0,0.0,0.0,0.0,0.0,0.0,0.0,0.0,0.0,0.0,0.0,0.0,0.0,0.0,0.0,0.0,0.0,0.0,0.0,0.0,0.0,0.0,0.0,0.0,0.0,0.0,0.0,8.2304,8.2304,8.2304,8.2304,8.2304,8.2304,8.2304,8.2304,8.2304,8.2304,8.2695,8.3359,8.4258,8.5117,8.5976,8.6875,8.7304,8.75,8.75,8.75,8.75,8.75,8.75,8.75,8.75,8.75,8.75,8.75,8.75,8.75,8.75,8.75,8.75,8.75,8.75,8.75,8.75,8.75,8.75,8.75,8.7656,8.8008,8.8867,8.9179,8.9609,9.0469,9.0625,9.0625,9.0625,9.1172,9.1434,9.1041,9.1515,9.171,9.1325,9.1248,9.121,9.121,9.121,9.1392,9.1872,9.2077,9.2304,9.2578,9.2617,9.2617,9.2617,9.2617,9.2617,9.2617,9.2812,9.3242,9.3906,9.4336,9.4883,5.0156,5.0,0.0,0.0,0.0,0.0,0.0,0.0,0.0,0.0,0.0,0.0,0.0,0.0,0.0,0.0,0.0,0.0,0.0,0.0,0.0,0.0,0.0,0.0,0.0,0.0,0.0,0.0,0.0,0.0,0.0,0.0,0.0,0.0,0.0,0.0,0.0,0.0,8.2304,8.2304,8.2304,8.2304,8.2304,8.2304,8.2304,8.2304,8.2304,8.2344,8.2461,8.332,8.4219,8.5078,8.5937,8.6797,8.75,8.75,8.75,8.75,8.75,8.75,8.75,8.75,8.75,8.75,8.75,8.75,8.75,8.75,8.75,8.75,8.75,8.75,8.75,8.75,8.75,8.75,8.75,8.8086,8.8867,8.9726,9.0547,9.1406,9.2265,9.2422,9.2422,9.2422,9.2461,9.2382,9.2107,9.1993,9.1787,9.1518,9.1325,9.121,9.121,9.121,9.1399,9.1852,9.2081,9.2304,9.2578,9.2617,9.2617,9.2617,9.2617,9.2617,9.2617,9.3398,9.3828,9.3945,9.5547,9.6367,4.8555,4.8984,0.0,0.0,0.0,0.0,0.0,0.0,0.0,0.0,0.0,0.0,0.0,0.0,0.0,0.0,0.0,0.0,0.0,0.0,0.0,0.0,0.0,0.0,0.0,0.0,0.0,0.0,0.0,0.0,0.0,0.0,0.0,0.0,0.0,0.0,0.0,0.0,8.2304,8.2304,8.2304,8.2304,8.2304,8.2304,8.2304,8.2304,8.2304,8.2304,8.2383,8.3242,8.4101,8.5039,8.6445,8.7226,8.75,8.75,8.75,8.75,8.75,8.75,8.75,8.75,8.75,8.75,8.75,8.75,8.75,8.75,8.75,8.75,8.75,8.75,8.75,8.75,8.75,8.7656,8.8125,8.8476,8.9101,9.0547,9.1054,9.1562,9.2461,9.2617,9.2617,9.2617,9.2617,9.2492,9.2227,9.2034,9.1798,9.1549,9.1325,9.121,9.121,9.121,9.1402,9.1864,9.1977,9.2202,9.2578,9.2617,9.2617,9.2617,9.2617,9.2617,9.2617,9.3476,9.4179,9.4726,9.5937,9.6758,4.75,0.0,0.0,0.0,0.0,0.0,0.0,0.0,0.0,0.0,0.0,0.0,0.0,0.0,0.0,0.0,0.0,0.0,0.0,0.0,0.0,0.0,0.0,0.0,0.0,0.0,0.0,0.0,0.0,0.0,0.0,0.0,0.0,0.0,0.0,0.0,0.0,0.0,8.2304,8.2304,8.2304,8.2304,8.2304,8.2304,8.2304,8.2304,8.2304,8.2304,8.2344,8.2929,8.3867,8.5039,8.6523,8.7265,8.75,8.75,8.75,8.75,8.75,8.75,8.75,8.75,8.75,8.75,8.75,8.75,8.75,8.75,8.75,8.75,8.75,8.75,8.75,8.75,8.7695,8.8047,8.8594,8.914,8.9883,9.1054,9.1523,9.1914,9.25,9.2617,9.2617,9.2617,9.2617,9.2517,9.237,9.207,9.1756,9.1429,9.1287,9.121,9.121,9.121,9.1364,9.1748,9.1835,9.2093,9.2578,9.2617,9.2617,9.2617,9.2617,9.2734,9.3008,9.3906,9.4765,9.5625,9.6484,9.7187,0.0,0.0,0.0,0.0,0.0,0.0,0.0,0.0,0.0,0.0,0.0,0.0,0.0,0.0,0.0,0.0,0.0,0.0,0.0,0.0,0.0,0.0,0.0,0.0,0.0,0.0,0.0,0.0,0.0,0.0,0.0,0.0,0.0,0.0,0.0,0.0,0.0,0.0,8.2304,8.2304,8.2304,8.2304,8.2304,8.2304,8.2304,8.2304,8.2304,8.2304,8.2304,8.2304,8.332,8.5,8.5859,8.6719,8.75,8.75,8.75,8.75,8.75,8.75,8.75,8.75,8.75,8.75,8.75,8.75,8.75,8.75,8.75,8.75,8.75,8.75,8.75,8.75,8.8125,8.8711,8.8711,9.0078,9.1289,9.1328,9.1992,9.2617,9.2617,9.2617,9.2617,9.2617,9.2617,9.2595,9.2604,9.2187,9.1717,9.1275,9.121,9.121,9.121,9.121,9.1287,9.1479,9.1757,9.2093,9.2578,9.2617,9.2617,9.2617,9.2617,9.3047,9.3906,9.4765,9.5664,9.6523,9.7344,9.7695,0.0,0.0,0.0,0.0,0.0,0.0,0.0,0.0,0.0,0.0,0.0,0.0,0.0,0.0,0.0,0.0,0.0,0.0,0.0,0.0,0.0,0.0,0.0,0.0,0.0,0.0,0.0,0.0,0.0,0.0,0.0,0.0,0.0,0.0,0.0,0.0,0.0,0.0,0.0,8.2304,8.2304,8.2304,8.2304,8.2304,8.2304,8.2304,8.2304,8.2304,8.2344,8.2969,8.3867,8.5,8.5859,8.6719,8.75,8.75,8.75,8.75,8.75,8.75,8.75,8.75,8.75,8.75,8.75,8.75,8.75,8.75,8.75,8.75,8.75,8.75,8.7656,8.8203,8.8515,8.9023,9.0273,9.0937,9.1484,9.2109,9.2422,9.2617,9.2617,9.2617,9.2617,9.2617,9.2617,9.2478,9.2137,9.2004,9.1701,9.1245,9.121,9.121,9.121,9.121,9.1287,9.1479,9.1747,9.2032,9.2304,9.25,9.2617,9.2617,9.2617,9.3047,9.3906,9.4765,9.5664,9.6523,9.7344,9.7695,0.0,0.0,0.0,0.0,0.0,0.0,0.0,0.0,0.0,0.0,0.0,0.0,0.0,0.0,0.0,0.0,0.0,0.0,0.0,0.0,0.0,0.0,0.0,0.0,0.0,0.0,0.0,0.0,0.0,0.0,0.0,0.0,0.0,0.0,0.0,0.0,0.0,0.0,0.0,0.0,8.2304,8.2304,8.2304,8.2304,8.2304,8.2304,8.2304,8.2304,8.2344,8.2851,8.3594,8.4453,8.5351,8.6211,8.7031,8.7383,8.75,8.75,8.75,8.75,8.75,8.75,8.75,8.75,8.75,8.75,8.75,8.75,8.75,8.75,8.75,8.75,8.7695,8.8515,8.8945,8.9609,9.1015,9.1562,9.1953,9.25,9.2617,9.2617,9.2617,9.2617,9.2617,9.2617,9.2617,9.2453,9.2081,9.1941,9.1748,9.1364,9.1248,9.121,9.121,9.121,9.1248,9.1364,9.171,9.1953,9.2077,9.2414,9.2773,9.3125,9.3125,9.3711,9.4922,9.5469,9.6133,9.6992,9.7461,9.7695,0.0,0.0,0.0,0.0,0.0,0.0,0.0,0.0,0.0,0.0,0.0,0.0,0.0,0.0,0.0,0.0,0.0,0.0,0.0,0.0,0.0,0.0,0.0,0.0,0.0,0.0,0.0,0.0,0.0,0.0,0.0,0.0,0.0,0.0,0.0,0.0,0.0,0.0,0.0,0.0,0.0,8.2304,8.2304,8.2304,8.2304,8.2304,8.2304,8.2304,8.2304,8.2304,8.2812,8.3672,8.4453,8.5351,8.6289,8.7109,8.7422,8.75,8.75,8.75,8.75,8.75,8.75,8.75,8.75,8.75,8.75,8.75,8.75,8.75,8.75,8.75,8.7734,8.8625,8.941,9.0234,9.1172,9.2031,9.2617,9.2617,9.2617,9.2617,9.2617,9.2617,9.2617,9.2617,9.2617,9.25,9.2226,9.2016,9.1814,9.1518,9.1325,9.121,9.121,9.121,9.121,9.121,9.1633,9.187,9.1897,9.234,9.3008,9.3867,9.3906,9.4765,9.6484,9.6484,9.6914,9.7695,9.7695,9.7695,0.0,0.0,0.0,0.0,0.0,0.0,0.0,0.0,0.0,0.0,0.0,0.0,0.0,0.0,0.0,0.0,0.0,0.0,0.0,0.0,0.0,0.0,0.0,0.0,0.0,0.0,0.0,0.0,0.0,0.0,0.0,0.0,0.0,0.0,0.0,0.0,0.0,0.0,0.0,0.0,8.2304,8.2304,8.2304,8.2304,8.2304,8.2304,8.2304,8.2304,8.2304,8.2304,8.2812,8.3633,8.3828,8.4844,8.6211,8.6406,8.6914,8.75,8.75,8.75,8.75,8.75,8.75,8.75,8.75,8.75,8.75,8.75,8.75,8.75,8.75,8.75,8.7865,8.9376,8.9872,9.0351,9.1719,9.2304,9.2617,9.2617,9.2617,9.2617,9.2617,9.2617,9.2617,9.2617,9.2617,9.25,9.2226,9.2015,9.181,9.151,9.1325,9.121,9.121,9.121,9.121,9.121,9.1633,9.187,9.1897,9.234,9.3008,9.3867,9.3906,9.4765,9.6484,9.6484,9.6914,9.7695,9.7695,9.7695,0.0,0.0,0.0,0.0,0.0,0.0,0.0,0.0,0.0,0.0,0.0,0.0,0.0,0.0,0.0,0.0,0.0,0.0,0.0,0.0,0.0,0.0,0.0,0.0,0.0,0.0,0.0,0.0,0.0,0.0,0.0,0.0,0.0,0.0,0.0,0.0,8.2304,8.2304,8.2304,8.2304,8.2304,8.2304,8.2304,8.2304,8.2304,8.2304,8.2304,8.2304,8.2304,8.2304,8.2578,8.3008,8.3437,8.414,8.5078,8.5898,8.6484,8.6953,8.7344,8.75,8.75,8.75,8.75,8.75,8.75,8.75,8.75,8.75,8.75,8.75,8.75,8.75,8.7919,8.9489,8.9912,9.0443,9.2062,9.25,9.2617,9.2617,9.2617,9.2617,9.2617,9.2617,9.2617,9.2617,9.2617,9.2539,9.2422,9.2195,9.1942,9.1694,9.1479,9.1287,9.121,9.121,9.121,9.121,9.1633,9.187,9.1897,9.2769,9.3633,9.4492,9.4531,9.5351,9.707,9.707,9.7304,9.7695,9.7695,9.7695,0.0,0.0,0.0,0.0,0.0,0.0,0.0,0.0,0.0,0.0,0.0,0.0,0.0,0.0,0.0,0.0,0.0,0.0,0.0,0.0,0.0,0.0,0.0,0.0,0.0,0.0,0.0,0.0,0.0,0.0,0.0,0.0,0.0,0.0,0.0,0.0,8.2304,8.2304,8.2304,8.2304,8.2304,8.2304,8.2304,8.2304,8.2304,8.2304,8.2304,8.2304,8.2304,8.2304,8.2304,8.2383,8.3086,8.3476,8.3789,8.539,8.6054,8.6328,8.7187,8.75,8.75,8.75,8.75,8.75,8.75,8.75,8.75,8.75,8.75,8.75,8.75,8.75,8.789,8.9375,8.9895,9.045,9.211,9.2489,9.2539,9.2539,9.2578,9.2617,9.2617,9.2617,9.2617,9.2617,9.2617,9.2617,9.2617,9.2422,9.2202,9.1992,9.1682,9.1441,9.1287,9.121,9.121,9.121,9.1748,9.2063,9.213,9.3355,9.4492,9.539,9.5429,9.6172,9.7695,9.7695,9.7695,9.7695,9.7695,9.7695,0.0,0.0,0.0,0.0,0.0,0.0,0.0,0.0,0.0,0.0,0.0,0.0,0.0,0.0,0.0,0.0,0.0,0.0,0.0,0.0,0.0,0.0,0.0,0.0,0.0,0.0,0.0,0.0,0.0,0.0,0.0,0.0,0.0,0.0,0.0,0.0,8.2304,8.2304,8.2304,8.2304,8.2304,8.2304,8.2304,8.2304,8.2304,8.2304,8.2304,8.2304,8.2304,8.2304,8.2304,8.2304,8.2422,8.2929,8.3711,8.4726,8.5547,8.6328,8.7187,8.75,8.75,8.75,8.75,8.75,8.75,8.75,8.75,8.75,8.75,8.75,8.75,8.75,8.7929,8.957,8.9972,9.036,9.1701,9.2143,9.2265,9.2265,9.2422,9.2617,9.2617,9.2617,9.2617,9.2617,9.2617,9.2617,9.2617,9.2578,9.2459,9.2204,9.175,9.1479,9.1441,9.1287,9.121,9.121,9.2133,9.2759,9.3043,9.4096,9.5195,9.6289,9.6328,9.6797,9.7695,9.7695,9.7695,9.7695,9.7695,9.7695,0.0,0.0,0.0,0.0,0.0,0.0,0.0,0.0,0.0,0.0,0.0,0.0,0.0,0.0,0.0,0.0,0.0,0.0,0.0,0.0,0.0,0.0,0.0,0.0,0.0,0.0,0.0,0.0,0.0,0.0,0.0,8.2304,8.2304,8.2304,8.2304,0.0,8.2304,8.2304,8.2304,8.2304,8.2304,8.2304,8.2304,8.2304,8.2304,8.2304,8.2304,8.2304,8.2304,8.2304,8.2304,8.2304,8.2304,8.2539,8.3047,8.4414,8.5156,8.5664,8.7031,8.75,8.75,8.75,8.75,8.75,8.75,8.75,8.75,8.75,8.75,8.75,8.75,8.75,8.7851,8.9219,8.97,9.0235,9.1682,9.2238,9.2409,9.2414,9.2539,9.2617,9.2617,9.2617,9.2617,9.2617,9.2617,9.2617,9.2617,9.2617,9.25,9.2226,9.1919,9.1638,9.1476,9.1325,9.121,9.121,9.1748,9.2382,9.3175,9.4227,9.5351,9.6484,9.6484,9.6914,9.7695,9.7695,9.7695,9.7695,9.7695,9.7695,0.0,0.0,0.0,0.0,0.0,0.0,0.0,0.0,0.0,0.0,0.0,0.0,0.0,0.0,0.0,0.0,0.0,0.0,0.0,0.0,0.0,0.0,0.0,0.0,0.0,0.0,0.0,0.0,0.0,0.0,0.0,8.2304,8.2304,8.2304,8.2304,8.2304,8.2304,8.2304,8.2304,8.2304,8.2304,8.2304,8.2304,8.2304,8.2304,8.2304,8.2304,8.2304,8.2304,8.2304,8.2304,8.2304,8.2304,8.2304,8.2461,8.4023,8.4726,8.5117,8.664,8.7304,8.75,8.75,8.75,8.75,8.75,8.75,8.75,8.75,8.75,8.75,8.75,8.75,8.7773,8.8828,8.9434,9.0199,9.1805,9.2289,9.2431,9.2599,9.2617,9.2617,9.2617,9.2617,9.2617,9.2617,9.2617,9.2617,9.2617,9.2617,9.2539,9.2304,9.2116,9.186,9.1621,9.1402,9.1248,9.121,9.1748,9.2479,9.348,9.4723,9.5809,9.6797,9.6797,9.7109,9.7695,9.7695,9.7695,9.7695,9.7695,9.7695,0.0,0.0,0.0,0.0,0.0,0.0,0.0,0.0,0.0,0.0,0.0,0.0,0.0,0.0,0.0,0.0,0.0,0.0,0.0,0.0,0.0,0.0,0.0,0.0,0.0,0.0,0.0,0.0,0.0,0.0,8.2304,8.2304,8.2304,8.2304,8.2304,8.2304,8.2304,8.2304,8.2304,8.2304,8.2304,8.2304,8.2304,8.2304,8.2304,8.2304,8.2304,8.2304,8.2304,8.2304,8.2304,8.2304,8.2304,8.2304,8.2422,8.332,8.4179,8.5039,8.5937,8.6797,8.75,8.75,8.75,8.75,8.75,8.75,8.75,8.75,8.75,8.75,8.75,8.75,8.7695,8.8515,8.9389,9.0379,9.1901,9.2044,9.2051,9.2494,9.2617,9.2617,9.2617,9.2617,9.2617,9.2617,9.2617,9.2617,9.2617,9.2617,9.2578,9.2578,9.2343,9.211,9.1919,9.1633,9.1402,9.121,9.271,9.3862,9.4398,9.6019,9.7109,9.7617,9.7656,9.7656,9.7695,9.7695,9.7695,9.7695,9.7695,9.7695,0.0,0.0,0.0,0.0,0.0,0.0,0.0,0.0,0.0,0.0,0.0,0.0,0.0,0.0,0.0,0.0,0.0,0.0,0.0,0.0,0.0,0.0,0.0,0.0,0.0,0.0,0.0,0.0,0.0,0.0,8.2304,8.2304,8.2304,8.2304,8.2304,8.2304,8.2304,8.2304,8.2304,8.2304,8.2304,8.2304,8.2304,8.2304,8.2304,8.2304,8.2304,8.2304,8.2304,8.2304,8.2304,8.2304,8.2304,8.2304,8.2422,8.3281,8.414,8.5039,8.5898,8.6758,8.75,8.75,8.75,8.75,8.75,8.75,8.75,8.75,8.75,8.75,8.75,8.789,8.8633,9.0039,9.0888,9.1571,9.2311,9.2248,9.2216,9.2521,9.2617,9.2617,9.2617,9.2617,9.2617,9.2617,9.2617,9.2617,9.2617,9.2617,9.2617,9.2617,9.2344,9.2099,9.1928,9.1655,9.1633,9.2018,9.2595,9.3631,9.5206,9.584,9.6629,9.7695,9.7695,9.7695,9.7695,9.7695,9.7695,9.7695,9.7695,9.7695,0.0,0.0,0.0,0.0,0.0,0.0,0.0,0.0,0.0,0.0,0.0,0.0,0.0,0.0,0.0,0.0,0.0,0.0,0.0,0.0,0.0,0.0,0.0,0.0,0.0,0.0,0.0,0.0,0.0,0.0,8.2304,8.2304,8.2304,8.2304,8.2304,8.2304,8.2304,8.2304,8.2304,8.2304,8.2304,8.2304,8.2304,8.2304,8.2304,8.2304,8.2304,8.2304,8.2304,8.2304,8.2304,8.2304,8.2304,8.2304,8.2383,8.2969,8.3711,8.4609,8.5469,8.6328,8.7109,8.7383,8.75,8.75,8.75,8.75,8.75,8.75,8.75,8.75,8.75,8.8086,8.9062,9.0508,9.1367,9.197,9.2482,9.2364,9.2257,9.2556,9.2617,9.2617,9.2617,9.2617,9.2617,9.2617,9.2617,9.2617,9.2617,9.2617,9.2617,9.2617,9.2422,9.2255,9.2011,9.1773,9.1902,9.2556,9.2787,9.371,9.5516,9.5956,9.659,9.7578,9.7656,9.7695,9.7695,9.7695,9.7695,9.7695,9.7695,9.7695,0.0,0.0,0.0,0.0,0.0,0.0,0.0,0.0,0.0,0.0,0.0,0.0,0.0,0.0,0.0,0.0,0.0,0.0,0.0,0.0,0.0,0.0,0.0,0.0,0.0,0.0,0.0,0.0,0.0,0.0,8.2304,8.2304,8.2304,8.2304,8.2304,8.2304,8.2304,8.2304,8.2304,8.2304,8.2304,8.2304,8.2304,8.2304,8.2304,8.2304,8.2304,8.2304,8.2304,8.2304,8.2304,8.2304,8.2304,8.2304,8.2304,8.2304,8.2851,8.3711,8.4609,8.5469,8.6328,8.7226,8.75,8.75,8.75,8.75,8.75,8.75,8.75,8.75,8.7578,8.8164,8.8945,8.9844,9.0703,9.1562,9.2422,9.2402,9.2274,9.2556,9.2617,9.2617,9.2617,9.2617,9.2617,9.2617,9.2617,9.2617,9.2617,9.2617,9.2617,9.2617,9.2617,9.25,9.2226,9.2032,9.2168,9.2787,9.3364,9.421,9.5401,9.645,9.7123,9.7382,9.7617,9.7695,9.7695,9.7695,9.7695,9.7695,9.7695,9.7695,4.0703,0.0,0.0,0.0,0.0,0.0,0.0,0.0,0.0,0.0,0.0,0.0,0.0,0.0,0.0,0.0,0.0,0.0,0.0,0.0,0.0,0.0,0.0,0.0,0.0,0.0,0.0,0.0,0.0,8.2304,8.2304,8.2304,8.2304,8.2304,8.2304,8.2304,8.2304,8.2304,8.2304,8.2304,8.2304,8.2304,8.2304,8.2304,8.2304,8.2304,8.2304,8.2304,8.2304,8.2304,8.2304,8.2304,8.2304,8.2304,8.2304,8.2304,8.2851,8.3711,8.4609,8.5469,8.6328,8.7226,8.75,8.75,8.75,8.75,8.75,8.75,8.75,8.7773,8.8984,8.9453,9.0039,9.1523,9.207,9.2304,9.2539,9.2546,9.2507,9.2576,9.2617,9.2617,9.2617,9.2617,9.2617,9.2617,9.2617,9.2617,9.2617,9.2617,9.2617,9.2617,9.2617,9.25,9.2226,9.2016,9.2432,9.3666,9.371,9.448,9.6172,9.6729,9.7143,9.7382,9.7617,9.7695,9.7695,9.7695,9.7695,9.7695,9.7695,9.7695,0.0,0.0,0.0,0.0,0.0,0.0,0.0,0.0,0.0,0.0,0.0,0.0,0.0,0.0,0.0,0.0,0.0,0.0,0.0,0.0,0.0,0.0,0.0,0.0,0.0,0.0,0.0,0.0,8.0937,8.1211,8.1211,8.1562,8.1758,8.1758,8.2109,8.2304,8.2304,8.2304,8.2304,8.2304,8.2304,8.2304,8.2304,8.2304,8.2304,8.2304,8.2304,8.2304,8.2304,8.2304,8.2304,8.2304,8.2304,8.2304,8.2304,8.2304,8.2617,8.3242,8.4453,8.5234,8.5859,8.7109,8.75,8.75,8.75,8.75,8.75,8.75,8.75,8.7734,8.8711,8.9492,9.0273,9.1289,9.207,9.2617,9.2617,9.2617,9.2617,9.2617,9.2617,9.2617,9.2617,9.2617,9.2617,9.2617,9.2617,9.2617,9.2617,9.2617,9.2617,9.2617,9.2617,9.2539,9.2383,9.2496,9.306,9.4163,9.4326,9.5018,9.6403,9.6788,9.7053,9.7229,9.753,9.7695,9.7695,9.7695,9.7695,9.7695,9.7695,9.7695,0.0,0.0,0.0,0.0,0.0,0.0,0.0,5.6562,0.0,0.0,0.0,0.0,0.0,0.0,0.0,0.0,0.0,0.0,0.0,0.0,0.0,0.0,0.0,0.0,0.0,0.0,0.0,7.957,7.9648,7.9687,7.9687,8.0429,8.0859,8.0859,8.1601,8.207,8.2148,8.2148,8.2187,8.2304,8.2304,8.2304,8.2304,8.2304,8.2304,8.2304,8.2304,8.2304,8.2304,8.2304,8.2304,8.2304,8.2304,8.2304,8.2304,8.2304,8.2304,8.2539,8.4297,8.4883,8.5195,8.6914,8.75,8.75,8.75,8.75,8.75,8.75,8.75,8.7539,8.7617,8.8828,9.0039,9.0117,9.1406,9.2617,9.2617,9.2617,9.2617,9.2617,9.2617,9.2617,9.2617,9.2617,9.2617,9.2617,9.2617,9.2617,9.2617,9.2617,9.2617,9.2617,9.2617,9.2617,9.2617,9.3047,9.3651,9.4381,9.4968,9.5557,9.6288,9.6749,9.7001,9.6993,9.7454,9.7695,9.7695,9.7695,9.7695,9.7695,9.7695,9.7695,4.7695,4.8516,4.9062,0.0,0.0,0.0,0.0,4.9101,0.0,0.0,0.0,0.0,0.0,0.0,0.0,0.0,0.0,0.0,0.0,0.0,0.0,0.0,0.0,0.0,0.0,0.0,7.8711,7.8711,7.9336,7.9687,7.9687,7.9844,7.9961,7.9961,8.0117,8.0547,8.125,8.125,8.1601,8.2304,8.2304,8.2304,8.2304,8.2304,8.2304,8.2304,8.2304,8.2304,8.2304,8.2304,8.2304,8.2304,8.2304,8.2304,8.2304,8.2304,8.2304,8.2539,8.4297,8.4883,8.5195,8.6914,8.75,8.75,8.75,8.75,8.75,8.75,8.75,8.7656,8.8281,8.9219,9.0195,9.0898,9.1836,9.2617,9.2617,9.2617,9.2617,9.2617,9.2617,9.2617,9.2617,9.2617,9.2617,9.2617,9.2617,9.2617,9.2617,9.2617,9.2617,9.2617,9.2617,9.2617,9.2617,9.25,9.308,9.4637,9.4486,9.5018,9.648,9.6826,9.7001,9.6993,9.7454,9.7695,9.7695,9.7695,9.7695,9.7695,9.7695,9.7695,4.9648,4.9883,5.0195,5.0156,0.0,0.0,0.0,0.0,0.0,0.0,0.0,0.0,0.0,0.0,0.0,0.0,0.0,0.0,0.0,0.0,0.0,0.0,0.0,0.0,0.0,0.0,7.7383,7.7812,7.8242,7.8437,7.8437,7.8867,7.9101,7.9101,7.9492,8.0117,8.0976,8.1015,8.1445,8.2304,8.2304,8.2304,8.2304,8.2304,8.2304,8.2304,8.2304,8.2304,8.2304,8.2304,8.2304,8.2304,8.2304,8.2304,8.2304,8.2304,8.2304,8.25,8.3789,8.4531,8.5117,8.6445,8.7148,8.75,8.75,8.75,8.75,8.75,8.75,8.7578,8.8008,8.8711,8.957,9.0429,9.1328,9.207,9.25,9.2617,9.2617,9.2617,9.2617,9.2617,9.2617,9.2617,9.2617,9.2617,9.2617,9.2617,9.2617,9.2617,9.2617,9.2617,9.2617,9.2617,9.2617,9.3281,9.4023,9.4765,9.5383,9.598,9.6557,9.6865,9.7064,9.7202,9.7527,9.7695,9.7695,9.7695,9.7695,9.7695,9.7695,9.7695,0.0,0.0,0.0,0.0,0.0,5.0469,0.0,0.0,0.0,0.0,0.0,0.0,0.0,0.0,0.0,0.0,0.0,0.0,0.0,0.0,0.0,0.0,0.0,0.0,0.0,0.0,7.5234,7.6601,7.6211,7.625,7.6914,7.7773,7.8242,7.8242,7.8867,7.9648,8.0508,8.0664,8.1172,8.2031,8.2226,8.2304,8.2304,8.2304,8.2304,8.2304,8.2304,8.2304,8.2304,8.2304,8.2304,8.2304,8.2304,8.2304,8.2304,8.2304,8.2304,8.2461,8.3476,8.4297,8.5078,8.6094,8.6914,8.75,8.75,8.75,8.75,8.75,8.75,8.75,8.75,8.8203,8.914,8.9844,9.0781,9.1758,9.2461,9.2617,9.2617,9.2617,9.2617,9.2617,9.2617,9.2617,9.2617,9.2617,9.2617,9.2617,9.2617,9.2617,9.2617,9.2617,9.2617,9.2617,9.2617,9.3906,9.4765,9.4883,9.6154,9.684,9.6685,9.6859,9.7109,9.7382,9.7617,9.7695,9.7695,9.7695,9.7695,9.7695,9.7695,9.7695,0.0,0.0,0.0,0.0,5.5859,0.0,0.0,0.0,0.0,0.0,0.0,0.0,0.0,0.0,0.0,0.0,0.0,0.0,0.0,0.0,0.0,0.0,0.0,0.0,0.0,0.0,0.0,7.4648,7.2734,7.2773,7.5898,7.6875,7.7344,7.7344,7.7422,7.789,7.8789,7.9492,8.0273,8.1172,8.1914,8.2304,8.2304,8.2304,8.2304,8.2304,8.2304,8.2304,8.2304,8.2304,8.2304,8.2304,8.2304,8.2304,8.2304,8.2304,8.2304,8.2539,8.4179,8.4804,8.5156,8.6836,8.7422,8.75,8.75,8.75,8.75,8.75,8.75,8.75,8.75,8.8672,8.9883,8.9961,9.125,9.2461,9.2578,9.2617,9.2617,9.2617,9.2617,9.2617,9.2617,9.2617,9.2617,9.2617,9.2617,9.2617,9.2617,9.2617,9.2617,9.2617,9.2617,9.2617,9.2617,9.2773,9.3554,9.5078,9.5122,9.567,9.6875,9.7001,9.7109,9.7382,9.7617,9.7695,9.7695,9.7695,9.7695,9.7695,9.7695,9.7695,0.0,0.0,0.0,0.0,0.0,0.0,0.0,0.0,4.7891,0.0,0.0,0.0,0.0,0.0,0.0,0.0,0.0,0.0,0.0,0.0,0.0,0.0,0.0,0.0,0.0,0.0,0.0,0.0,0.0,7.1484,7.4961,7.5976,7.668,7.7187,7.7187,7.7617,7.8476,7.9297,8.0156,8.1015,8.1875,8.2304,8.2304,8.2304,8.2304,8.2304,8.2304,8.2304,8.2304,8.2304,8.2304,8.2304,8.2304,8.2304,8.2304,8.2304,8.2304,8.2461,8.3711,8.4492,8.5195,8.6914,8.75,8.75,8.75,8.75,8.75,8.75,8.75,8.75,8.75,8.8359,8.9375,8.9883,9.0937,9.1992,9.25,9.2617,9.2617,9.2617,9.2617,9.2617,9.2617,9.2617,9.2617,9.2617,9.2617,9.2617,9.2617,9.2617,9.2617,9.2617,9.2617,9.2617,9.2617,9.3047,9.3672,9.4414,9.5129,9.5991,9.6958,9.7119,9.719,9.7171,9.7524,9.7695,9.7695,9.7695,9.7695,9.7695,9.7695,9.7695,5.8594,0.0,0.0,0.0,0.0,0.0,0.0,0.0,0.0,0.0,0.0,0.0,0.0,0.0,0.0,0.0,0.0,0.0,0.0,0.0,0.0,0.0,0.0,0.0,0.0,0.0,0.0,0.0,0.0,0.0,7.3281,7.457,7.5703,7.6797,7.707,7.75,7.8125,7.8945,7.9805,8.0664,8.1523,8.207,8.2304,8.2304,8.2304,8.2304,8.2304,8.2304,8.2304,8.2304,8.2304,8.2304,8.2304,8.2304,8.2304,8.2304,8.2304,8.2461,8.3554,8.4687,8.582,8.7109,8.75,8.75,8.75,8.75,8.75,8.75,8.75,8.75,8.75,8.8281,8.9219,8.9844,9.0859,9.1836,9.2461,9.2617,9.2617,9.2617,9.2617,9.2617,9.2617,9.2617,9.2617,9.2617,9.2617,9.2617,9.2617,9.2617,9.2617,9.2617,9.2617,9.2617,9.2617,9.3164,9.3633,9.3867,9.5273,9.6266,9.6653,9.7126,9.7272,9.6993,9.7454,9.7695,9.7695,9.7695,9.7695,9.7695,9.7695,9.7695,0.0,0.0,0.0,0.0,0.0,0.0,0.0,0.0,5.2031,0.0,0.0,0.0,0.0,0.0,0.0,0.0,0.0,0.0,0.0,0.0,0.0,0.0,0.0,0.0,0.0,0.0,0.0,0.0,0.0,0.0,7.0469,7.2461,7.418,7.5898,7.6758,7.7226,7.7226,7.8086,7.8945,7.9765,8.0625,8.1484,8.2304,8.2304,8.2304,8.2304,8.2304,8.2304,8.2304,8.2304,8.2304,8.2304,8.2304,8.2304,8.2304,8.2304,8.2304,8.2539,8.4258,8.5976,8.7422,8.7461,8.75,8.75,8.75,8.75,8.75,8.75,8.75,8.75,8.75,8.8711,8.9961,9.0,9.1328,9.2578,9.2578,9.2617,9.2617,9.2617,9.2617,9.2617,9.2617,9.2617,9.2617,9.2617,9.2617,9.2617,9.2617,9.2617,9.2617,9.2617,9.2617,9.2617,9.2617,9.2617,9.3008,9.3867,9.5273,9.5977,9.5748,9.68,9.7272,9.6993,9.7454,9.7695,9.7695,9.7695,9.7695,9.7695,9.7695,9.7695,0.0,0.0,6.7734,6.082,0.0,0.0,0.0,0.0,0.0,0.0,0.0,0.0,0.0,0.0,0.0,0.0,0.0,0.0,0.0,0.0,0.0,0.0,0.0,0.0,0.0,0.0,0.0,0.0,0.0,0.0,0.0,7.1117,7.3164,7.4805,7.6367,7.7187,7.7187,7.8594,7.9414,7.9726,8.1172,8.1992,8.2304,8.2304,8.2304,8.2304,8.2304,8.2304,8.2304,8.2304,8.2304,8.2304,8.2304,8.2304,8.2304,8.2304,8.2304,8.2539,8.4297,8.6054,8.75,8.75,8.75,8.75,8.75,8.75,8.75,8.75,8.75,8.75,8.75,8.875,9.0,9.0,9.1328,9.2617,9.2617,9.2617,9.2617,9.2617,9.2617,9.2617,9.2617,9.2617,9.2617,9.2617,9.2617,9.2617,9.2617,9.2617,9.2617,9.2617,9.2617,9.2617,9.2617,9.2617,9.2969,9.3828,9.4922,9.5621,9.5938,9.6889,9.7354,9.7264,9.7416,9.7578,9.7695,9.7695,9.7695,9.7695,9.7695,9.7695,6.8281,6.9648,0.0,0.0,6.2656,0.0,0.0,0.0,0.0,0.0,0.0,0.0,0.0,0.0,0.0,0.0,0.0,0.0,0.0,0.0,0.0,0.0,0.0,0.0,0.0,0.0,5.6604,5.9491,5.8851,0.0,0.0,0.0,7.1468,7.3437,7.5586,7.6875,7.7187,7.8594,7.9414,7.9726,8.1133,8.1992,8.2304,8.2304,8.2304,8.2304,8.2304,8.2304,8.2304,8.2304,8.2304,8.2304,8.2304,8.2304,8.2304,8.2304,8.2695,8.3398,8.4492,8.6054,8.75,8.75,8.75,8.75,8.75,8.75,8.75,8.75,8.75,8.75,8.75,8.875,9.0,9.0,9.1328,9.2617,9.2617,9.2617,9.2617,9.2617,9.2617,9.2617,9.2617,9.2617,9.2617,9.2617,9.2617,9.2617,9.2617,9.2617,9.2617,9.2617,9.2617,9.2617,9.2617,9.2617,9.2851,9.3398,9.4531,9.5312,9.5625,9.6858,9.7479,9.7402,9.7487,9.7578,9.7695,9.7695,9.7695,9.7695,9.7695,9.7695]},{"header":{"parameterUnit":"m.s-1","parameterCategory":1,"la1":30.6,"la2":29.2853,"lo1":-89.7004,"lo2":-87.6739,"dy":0.0162,"dx":0.0183,"nx":112,"ny":82,"refTime":"2026-02-24T00:00:00:Z","depth":0,"parameterNumber":3,"parameterNumberName":"V-component_of_WINDS"},"data":[0.0,0.0,0.0,0.0,0.0,0.0,0.0,0.0,0.0,0.0,0.0,0.0,0.0,0.0,0.0,0.0,0.0,0.0,0.0,0.0,0.0,0.0,0.0,0.0,0.0,0.0,0.0,0.0,0.0,0.0,0.0,0.0,0.0,0.0,0.0,0.0,0.0,0.0,0.0,0.0,0.0,0.0,0.0,0.0,0.0,0.0,0.0,0.0,0.0,0.0,0.0,0.0,0.0,0.0,0.0,0.0,0.0,0.0,0.0,0.0,0.0,0.0,0.0,0.0,0.0,0.0,0.0,0.0,0.0,0.0,0.0,0.0,0.0,0.0,0.0,0.0,0.0,0.0,0.0,0.0,0.0,0.0,0.0,0.0,0.0,0.0,0.0,0.0,0.0,0.0,0.0,0.8177,1.0026,1.0602,1.0444,1.0249,0.9628,0.8656,0.0,0.0,0.0,0.0,0.0,0.0,0.0,0.0,0.0,0.0,0.0,0.0,0.0,0.0,0.0,0.0,0.0,0.0,0.0,0.0,0.0,0.0,0.0,0.0,0.0,0.0,0.0,0.0,0.0,0.0,0.0,0.0,0.0,0.0,0.0,0.0,0.0,0.0,0.0,0.0,0.0,0.0,0.0,0.0,0.0,0.0,0.0,0.0,0.0,0.0,0.0,0.0,0.0,0.0,0.0,0.0,0.0,0.0,0.0,0.0,0.0,0.0,0.0,0.0,0.0,0.0,0.0,0.0,0.0,0.0,0.0,0.0,0.0,0.0,0.0,0.0,0.0,0.0,0.0,0.0,0.0,0.0,0.0,0.0,0.0,0.0,0.0,0.0,0.0,0.0,0.0,0.0,0.0,0.0,0.0,0.0,0.0,0.0,0.0,0.0,0.0,0.0,0.0,0.0,-0.0097,0.1419,0.7084,1.0625,1.0724,1.0195,0.9503,0.8776,0.0,0.0,0.0,0.0,0.0,0.0,0.0,0.0,0.0,0.0,0.0,0.0,0.0,0.0,0.0,0.0,0.0,0.0,0.0,0.0,0.0,0.0,0.0,0.0,0.0,0.0,0.0,0.0,0.0,0.0,0.0,0.0,0.0,0.0,0.0,0.0,0.0,0.0,0.0,0.0,0.0,0.0,0.0,0.0,0.0,0.0,0.0,0.0,0.0,0.0,0.0,0.0,0.0,0.0,0.0,0.0,0.0,0.0,0.0,0.0,0.0,0.0,0.0,0.0,0.0,0.0,0.0,0.0,0.0,0.0,0.0,0.0,0.0,0.0,0.0,0.0,0.0,0.0,0.0,0.0,0.0,0.0,0.0,0.0,0.0,0.0,0.0,0.0,0.0,0.0,0.0,0.0,0.0,0.0,0.0,0.0,0.0,0.0,0.0,0.0,0.0,0.0,0.0,0.0,0.0,0.0,0.2894,0.6443,1.0352,1.0397,0.9849,0.8994,0.7469,0.0,0.0,0.0,0.0,0.0,0.0,0.0,0.0,0.0,0.0,0.0,0.0,0.0,0.0,0.0,0.0,0.0,0.0,0.0,0.0,0.0,0.0,0.0,0.0,0.0,0.0,0.0,0.0,0.0,0.0,0.0,0.0,0.0,0.0,0.0,0.0,0.0,0.0,0.0,0.0,0.0,0.0,0.0,0.0,0.0,0.0,0.0,0.0,0.0,0.0,0.0,0.0,0.0,0.0,0.0,0.0,0.0,0.0,0.0,0.0,0.0,0.0,0.0,0.0,0.0,0.0,0.0,0.0,0.0,0.0,0.0,0.0,0.0,0.0,0.0,0.0,0.0,0.0,0.0,0.0,0.0,0.0,0.0,0.0,0.0,0.0,0.0,0.0,0.0,0.0,0.0,0.0,0.0,0.0,0.0,0.0,0.0,0.0,0.0,0.0,0.0,0.0,0.0,0.0,0.0,0.0,0.2546,0.8862,0.9895,0.9884,0.9166,0.7643,0.0,0.0,0.0,0.0,0.0,0.0,0.0,0.0,0.0,0.0,0.0,0.0,0.0,0.0,0.0,0.0,0.0,0.0,0.0,0.0,0.0,0.0,0.0,0.0,0.0,0.0,0.0,0.0,0.0,0.0,0.0,0.0,0.0,0.0,0.0,0.0,0.0,0.0,0.0,0.0,0.0,0.0,0.0,0.0,0.0,0.0,0.0,0.0,0.0,0.0,0.0,0.0,0.0,0.0,0.0,0.0,0.0,0.0,0.0,0.0,0.0,0.0,0.0,0.0,0.0,0.0,0.0,0.0,0.0,0.0,0.0,0.0,0.0,0.0,0.0,0.0,0.0,0.0,0.0,0.0,0.0,0.0,0.0,0.0,0.0,0.0,0.0,0.0,0.0,0.0,0.0,0.0,0.0,0.0,0.0,0.0,0.0,0.0,0.0,0.0,0.0,0.0,0.0,0.0,0.0,0.0,0.1608,0.5496,0.8057,0.9345,0.896,0.74,0.0,0.0,0.0,0.0,0.0,0.0,0.0,0.0,0.0,0.0,0.0,0.0,0.0,0.0,0.0,0.0,0.0,0.0,0.0,0.0,0.0,0.0,0.0,0.0,0.0,0.0,0.0,0.0,0.0,0.0,0.0,0.0,0.0,0.0,0.0,0.0,0.0,0.0,0.0,0.0,0.0,0.0,0.0,0.0,0.0,0.0,0.0,0.0,0.0,0.0,0.0,0.0,0.0,0.0,0.0,0.0,0.0,0.0,0.0,0.0,0.0,0.0,0.0,0.0,0.0,0.0,0.0,0.0,0.0,0.0,0.0,0.0,0.0,0.0,0.0,0.0,0.0,0.0,0.0,0.0,0.0,0.0,0.0,0.0,0.0,0.0,0.0,0.0,0.0,0.0,0.0,0.0,0.0,0.0,0.0,0.0,0.0,0.0,0.0,0.0,0.0,0.0,0.0,0.0,0.0,0.0,0.1477,0.5095,0.8258,0.9593,0.8852,0.0,0.0,0.0,0.0,0.0,0.0,0.0,0.0,0.0,0.0,0.0,0.0,0.0,0.0,0.0,0.0,0.0,0.0,0.0,0.0,0.0,0.0,0.0,0.0,0.0,0.0,0.0,0.0,0.0,0.0,0.0,0.0,0.0,0.0,0.0,0.0,0.0,0.0,0.0,0.0,0.0,0.0,0.0,0.0,0.0,0.0,0.0,0.0,0.0,0.0,0.0,0.0,0.0,0.0,0.0,0.0,0.0,0.0,0.0,0.0,0.0,0.0,0.0,0.0,0.0,0.0,0.0,0.0,0.0,0.0,0.0,0.0,0.0,0.0,0.0,0.0,0.0,0.0,0.0,0.0,0.0,0.0,0.0,0.0,0.0,0.0,0.0,0.0,0.0,0.0,0.0,0.0,0.0,0.0,0.0,0.0,0.0,0.0,0.0,0.0,0.0,0.0,0.0,0.0,0.0,0.0,0.0,0.1478,0.5095,0.8419,0.9854,0.8771,0.0,0.0,0.0,0.0,0.0,0.0,0.0,0.0,0.0,0.0,0.0,0.0,0.0,0.0,0.0,0.0,0.0,0.0,0.0,0.0,0.0,0.0,0.0,0.0,0.0,0.0,0.0,0.0,0.0,0.0,0.0,0.0,0.0,0.0,0.0,0.0,0.0,0.0,0.0,0.0,0.0,0.0,0.0,0.0,0.0,0.0,0.0,0.0,0.0,0.0,0.0,0.0,0.0,0.0,0.0,0.0,0.0,0.0,0.0,0.0,0.0,0.0,0.0,0.0,0.0,0.0,0.0,0.0,0.0,0.0,0.0,0.0,0.0,0.0,0.0,0.0,0.0,0.0,0.0,0.0,0.0,0.0,0.0,0.0,0.0,0.0,0.0,0.0,0.0,0.0,0.0,0.0,0.0,0.0,0.0,0.0,0.0,0.0,0.0,0.0,0.0,0.0,0.0,0.0,0.0,0.0,0.0,0.1478,0.5098,0.8449,0.9888,0.0,0.0,0.0,0.0,0.0,0.0,0.0,0.0,0.0,0.0,0.0,0.0,0.0,0.0,0.0,0.0,0.0,0.0,0.0,0.0,0.0,0.0,0.0,0.0,0.0,0.0,0.0,0.0,0.0,0.0,0.0,0.0,0.0,0.0,0.0,0.0,0.0,0.0,0.0,0.0,0.0,0.0,0.0,0.0,0.0,0.0,0.0,0.0,0.0,0.0,0.0,0.0,0.0,0.0,0.0,0.0,0.0,0.0,0.0,0.0,0.0,0.0,0.0,0.0,0.0,0.0,0.0,0.0,0.0,0.0,0.0,0.0,0.0,0.0,0.0,0.0,0.0,0.0,0.0,0.0,0.0,0.0,0.0,0.0,0.0,0.0,0.0,0.0,0.0,0.0,0.0,0.0,0.0,0.0,0.0,0.0,0.0,0.0,0.0,0.0,0.0,0.0,0.0,0.0,0.0,0.0,0.0,0.0,0.1485,0.503,0.8474,0.982,0.8615,0.0,0.0,0.0,0.0,0.0,0.0,0.0,0.0,0.0,0.0,0.0,0.0,0.0,0.0,0.0,0.0,0.0,0.0,0.0,0.0,0.0,0.0,0.0,0.0,0.0,0.0,0.0,0.0,0.0,0.0,0.0,0.0,0.0,0.0,0.0,0.0,0.0,0.0,0.0,0.0,0.0,0.0,0.0,0.0,0.0,0.0,0.0,0.0,0.0,0.0,0.0,0.0,0.0,0.0,0.0,0.0,0.0,0.0,0.0,0.0,0.0,0.0,0.0,0.0,0.0,0.0,0.0,0.0,0.0,0.0,0.0,0.0,0.0,0.0,0.0,0.0,0.0,0.0,0.0,0.0,0.0,0.0,0.0,0.0,0.0,0.0,0.0,0.0,0.0,0.0,0.0,0.0,0.0,0.0,0.0,0.0,0.0,0.0,0.0,0.0,0.0,0.0,-0.0105,0.0,0.0,0.0,0.2728,0.4901,0.5338,0.8497,0.9801,0.8737,0.0,0.0,0.0,0.0,0.0,0.0,0.0,0.0,0.0,0.0,0.0,0.0,0.0,0.0,0.0,0.0,0.0,0.0,0.0,0.0,0.0,0.0,0.0,0.0,0.0,0.0,0.0,0.0,0.0,0.0,0.0,0.0,0.0,0.0,0.0,0.0,0.0,0.0,0.0,0.0,0.0,0.0,0.0,0.0,0.0,0.0,0.0,0.0,0.0,0.0,0.0,0.0,0.0,0.0,0.0,0.0,0.0,0.0,0.0,0.0,0.0,0.0,0.0,0.0,0.0,0.0,0.0,0.0,0.0,0.0,0.0,0.0,0.0,0.0,0.0,0.0,0.0,0.0,0.0,0.0,0.0,0.0,0.0,0.0,0.0,0.0,0.0,0.0,0.0,0.0,0.0,0.0,0.0,0.0,0.0,0.0,0.0,0.0,0.0,0.0,0.0,0.0,-0.021,0.0,0.0,0.0,0.6902,1.0098,0.6317,0.8706,0.9975,0.9028,0.0,0.0,0.0,0.0,0.0,0.0,0.0,0.0,0.0,0.0,0.0,0.0,0.0,0.0,0.0,0.0,0.0,0.0,0.0,0.0,0.0,0.0,0.0,0.0,0.0,0.0,0.0,0.0,0.0,0.0,0.0,0.0,0.0,0.0,0.0,0.0,0.0,0.0,0.0,0.0,0.0,0.0,0.0,0.0,0.0,0.0,0.0,0.0,0.0,0.0,0.0,0.0,0.0,0.0,0.0,0.0,0.0,0.0,0.0,0.0,-0.6458,0.0,0.0,0.0,0.0,0.0,0.0,0.0,0.0,0.0,0.0,0.0,0.0,0.0,0.0,0.0,0.0,0.0,0.0,0.0,0.0,0.0,0.0,0.0,0.0,0.0,0.0,0.0,0.0,0.0,0.0,0.0,0.0,0.0,0.0,0.0,0.0,0.0,0.0,0.0,0.0,0.0,-0.0427,0.0,0.0,0.0,0.7,1.1101,1.0064,1.0348,1.0249,0.9178,0.0,0.0,0.0,0.0,0.0,0.0,0.0,0.0,0.0,0.0,0.0,0.0,0.0,0.0,0.0,0.0,0.0,0.0,0.0,0.0,0.0,0.0,0.0,0.0,0.0,0.0,0.0,0.0,0.0,0.0,0.0,0.0,0.0,0.0,0.0,0.0,0.0,0.0,0.0,0.0,0.0,0.0,0.0,0.0,0.0,0.0,0.0,0.0,0.0,0.0,0.0,0.0,0.0,0.0,0.0,0.0,0.0,0.0,0.0,0.0,0.0,-0.7129,0.0,0.0,0.0,0.0,0.0,0.0,0.0,0.0,0.0,0.0,0.0,0.0,0.0,0.0,0.0,0.0,0.0,0.0,0.0,0.0,0.0,0.0,0.0,0.0,0.0,0.0,0.0,0.0,0.0,0.0,0.0,0.0,0.0,0.0,0.0,0.0,0.0,0.0,0.0,0.0,-0.1847,-0.0614,0.0,0.0,0.5357,0.9501,1.1214,1.1043,1.0514,0.9741,0.8859,0.0,0.0,0.0,0.0,0.0,0.0,0.0,0.0,0.0,0.0,0.0,0.0,0.0,0.0,0.0,0.0,0.0,0.0,0.0,0.0,0.0,0.0,0.0,0.0,0.0,0.0,0.0,0.0,0.0,0.0,0.0,0.0,0.0,0.0,0.0,0.0,0.0,0.0,0.0,0.0,0.0,0.0,0.0,0.0,0.0,0.0,0.0,0.0,0.0,0.0,0.0,0.0,0.0,0.0,0.0,-0.9178,-0.932,-0.9388,-0.9347,-0.8628,-0.8357,-0.8377,0.0,0.0,0.0,0.0,0.0,0.0,0.0,0.0,0.0,0.0,0.0,0.0,0.0,0.0,0.0,0.0,0.0,0.0,0.0,0.0,0.0,0.0,0.0,0.0,0.0,-0.8194,-0.816,0.0,0.0,0.0,0.0,0.0,0.0,0.0,0.0,0.0,0.0,0.0,0.0,-0.3427,-0.1366,0.0,0.0,0.3543,0.7438,1.1335,1.1179,1.0792,1.0344,0.9429,0.8635,0.0,0.0,0.0,0.0,0.0,0.0,0.0,0.0,0.0,0.0,0.0,0.0,0.0,0.0,0.0,0.0,0.0,0.0,0.0,0.0,0.0,0.0,0.0,0.0,0.0,0.0,0.0,0.0,0.0,0.0,0.0,0.0,-0.5996,-0.6288,0.0,0.0,0.0,0.0,0.0,0.0,0.0,0.0,0.0,0.0,0.0,0.0,0.0,0.0,-0.8696,-0.9293,-0.9537,-0.9442,-1.0148,-1.0351,-1.0107,-1.0249,-1.0317,-1.0317,-1.0331,0.0,-0.9001,-0.8526,0.0,0.0,0.0,0.0,0.0,0.0,0.0,0.0,0.0,0.0,0.0,0.0,0.0,0.0,0.0,0.0,0.0,0.0,0.0,0.0,0.0,0.0,-0.8954,-0.911,-0.9191,-0.9184,0.0,-0.7862,-0.6803,-0.6593,0.0,0.0,0.0,0.0,0.0,0.0,0.0,0.0,-0.3717,-0.1528,0.0,0.0,0.343,0.7365,1.1342,1.1267,1.0941,1.0493,0.9964,0.9408,0.8818,0.7943,0.0,0.0,0.0,0.0,0.0,0.0,0.0,0.0,0.0,0.0,0.0,0.0,0.0,0.0,0.0,0.0,0.0,0.0,0.0,0.0,0.0,0.0,0.0,0.0,0.0,0.0,0.0,0.0,0.0,-0.6064,-0.6614,-0.6824,-0.6871,-0.6783,0.0,0.0,0.0,0.0,0.0,0.0,0.0,0.0,0.0,-0.8771,-0.9022,-0.9361,-0.9808,-1.0317,-1.0588,-1.0616,-1.1029,-1.1158,-1.1036,-1.1097,-1.1124,-1.1131,-1.1199,-1.0962,-1.048,0.0,-0.9096,-0.8648,0.0,0.0,0.0,0.0,0.0,0.0,0.0,0.0,0.0,0.0,0.0,0.0,0.0,0.0,0.0,0.0,0.0,0.0,0.0,0.0,0.0,-0.97,-0.9822,-0.9863,-0.9667,-0.8917,-0.8196,0.0,-0.7449,-0.7088,-0.6371,0.0,0.0,0.0,0.0,0.0,-0.4009,-0.1557,0.0,0.0,0.3437,0.7399,1.1319,1.1335,1.1077,1.088,1.0371,0.9924,0.9578,0.8791,0.8031,0.0,0.0,0.0,0.0,0.0,0.0,0.0,0.0,0.0,0.0,0.0,0.0,0.0,0.0,0.0,0.0,0.0,0.0,0.0,0.0,0.0,0.0,0.0,0.0,0.0,0.0,0.0,0.0,-0.6654,-0.721,-0.7269,-0.7577,-0.7636,0.0,0.0,0.0,0.0,0.0,0.0,-0.8418,-0.8723,-0.9157,-0.9761,-1.0032,-1.0365,-1.0778,-1.1145,-1.1409,-1.1565,-1.1721,-1.1809,-1.1843,-1.1843,-1.1843,-1.1843,-1.1843,-1.1823,-1.1714,-1.0697,-1.0059,-0.968,-0.9232,0.0,0.0,0.0,-0.9245,-0.9334,-0.9707,-0.9836,0.0,-0.9361,0.0,-0.8818,-0.8147,0.0,0.0,0.0,0.0,-0.873,-0.9252,0.0,-0.991,-1.0209,-1.0405,-1.035,-1.021,-0.9172,-0.8477,0.0,-0.8467,-0.7788,-0.619,0.0,0.0,0.0,0.0,-0.6446,-0.4312,-0.1719,0.0,0.0,0.3443,0.7417,1.126,1.1409,1.1206,1.1165,1.0717,1.0365,1.0168,0.9557,0.8886,0.0,0.0,0.0,0.0,0.0,0.0,0.0,0.0,0.0,0.0,0.0,0.0,0.0,0.0,0.0,0.0,0.0,0.0,0.0,0.0,0.0,0.0,0.0,0.0,0.0,0.0,0.0,0.0,0.0,0.0,-0.7905,-0.8391,0.0,0.0,0.0,0.0,-0.8384,-0.8682,-0.9055,-0.951,-0.9808,-1.0249,-1.0853,-1.1016,-1.1246,-1.1558,-1.1714,-1.1877,-1.2033,-1.2182,-1.2325,-1.2461,-1.2461,-1.2461,-1.2461,-1.2461,-1.2379,-1.2189,-1.128,-1.0806,-1.0609,-1.0154,-0.989,-0.9774,-0.9937,-1.0086,-1.0236,-1.0392,-1.0446,-1.0466,-1.0582,-1.0141,-0.9557,-0.951,-0.9198,0.0,0.0,-0.9306,-0.9612,-0.9924,-1.0222,-1.0527,-1.0833,-1.09,-1.0987,-1.0975,-0.8097,-0.641,0.0,-0.9144,0.0,-0.4676,0.0,0.0,-0.8037,0.0,-0.7322,-0.4334,-0.1619,0.0,0.0,0.3461,0.7417,1.126,1.1504,1.1314,1.1172,1.1009,1.0778,1.048,1.0161,0.9707,0.9096,0.8323,0.0,0.0,0.0,0.0,0.0,0.0,0.0,0.0,0.0,0.0,0.0,0.0,0.0,0.0,0.0,0.0,0.0,0.0,0.0,0.0,0.0,0.0,0.0,0.0,0.0,0.0,0.0,0.0,-0.8816,-0.7394,0.0,0.0,-0.9188,-0.9284,-0.9205,-0.9578,-0.9998,-1.0446,-1.0656,-1.0995,-1.1497,-1.166,-1.1884,-1.2182,-1.2332,-1.2488,-1.2644,-1.2698,-1.2752,-1.28,-1.28,-1.28,-1.28,-1.28,-1.2766,-1.2691,-1.2271,-1.1837,-1.1409,-1.1158,-1.1029,-1.0982,-1.1036,-1.1097,-1.1151,-1.1199,-1.1151,-1.105,-1.0914,-1.0555,-1.0175,-1.0175,-1.0066,-0.9971,-1.012,-1.031,-1.0514,-1.0711,-1.0846,-1.0948,-1.1056,-1.1007,-1.0348,-0.7912,-0.8178,-0.8392,-0.7111,-0.8209,-0.9061,-0.7886,-0.4245,-0.2601,-0.6058,-0.836,-0.93,-0.8196,-0.3304,0.0,0.0,0.1299,0.4649,1.1115,1.1443,1.1246,1.1165,1.0934,1.0751,1.0643,1.0439,1.0093,0.9591,0.9349,0.8528,0.0,0.0,0.0,0.0,0.0,0.0,0.0,0.0,0.0,0.0,0.0,0.0,0.0,0.0,0.0,0.0,0.0,0.0,0.0,0.0,0.0,0.0,0.0,0.0,0.0,0.0,-0.847,-0.8908,-0.6703,-0.5412,-0.6198,-0.8487,-0.9929,-0.9916,-1.0404,-1.0772,-1.1107,-1.1402,-1.166,-1.2047,-1.221,-1.2406,-1.2651,-1.2759,-1.2888,-1.3051,-1.3051,-1.3085,-1.3146,-1.3193,-1.3193,-1.3146,-1.32,-1.3159,-1.3057,-1.2956,-1.2651,-1.2216,-1.1952,-1.1816,-1.1769,-1.1769,-1.1769,-1.1769,-1.1769,-1.1667,-1.1504,-1.1307,-1.1043,-1.0792,-1.0792,-1.0758,-1.0738,-1.0839,-1.0941,-1.1043,-1.1138,-1.1199,-1.124,-1.1246,-1.1174,-1.0505,-0.8043,-0.9203,-0.9355,-0.4499,-0.5127,-0.6464,-0.6432,-0.2904,-0.0759,-0.3249,-0.7537,-1.0665,-1.0587,-0.5471,-0.1285,-0.0144,0.0,0.2615,0.9039,1.0715,1.1253,1.1165,1.0887,1.0677,1.0575,1.0426,1.0154,0.9754,0.9766,0.8902,0.7312,0.0,0.0,0.0,0.0,0.0,0.0,0.0,0.0,0.0,0.0,0.0,0.0,0.0,0.0,0.0,0.0,0.0,0.0,0.0,0.0,0.0,0.0,0.0,-0.7089,-0.8097,-0.8588,-0.7785,-0.6276,-0.3912,-0.0389,-0.6118,-1.0138,-1.0569,-1.0824,-1.1179,-1.1443,-1.1898,-1.2257,-1.2508,-1.2671,-1.2827,-1.2976,-1.299,-1.3078,-1.3077,-1.3077,-1.3005,-1.3184,-1.3323,-1.331,-1.3184,-1.3154,-1.3224,-1.313,-1.3124,-1.3037,-1.2842,-1.2508,-1.2223,-1.2094,-1.2094,-1.2094,-1.2088,-1.2081,-1.1979,-1.185,-1.1843,-1.1647,-1.1416,-1.1409,-1.1307,-1.1192,-1.1192,-1.1192,-1.1192,-1.1192,-1.1301,-1.1416,-1.1295,-1.1435,-1.1391,-1.1565,-1.0973,-0.8321,-0.1409,0.0,0.0,0.0,0.0,0.0,0.0,-0.6258,0.0,-1.1153,-0.7856,-0.4152,-0.0435,0.0,0.1597,0.5518,0.9193,1.1201,1.1165,1.088,1.0582,1.0297,1.0141,0.9924,0.9632,0.9537,0.8707,0.7158,0.0,0.0,0.0,0.0,0.0,0.0,0.0,0.0,0.0,0.0,0.0,0.0,0.0,0.0,0.0,0.0,0.0,0.0,0.0,0.0,0.0,0.0,-0.7702,-0.7702,-0.7999,-0.6726,-0.2721,-0.1813,-0.1134,-0.0143,-0.1735,-0.3937,-0.6712,-0.717,-0.7305,-0.739,-1.0325,-1.2384,-1.2868,-1.2976,-1.2966,-1.3144,-1.3217,-1.3363,-1.3239,-1.1289,-0.9748,-0.8599,-1.2087,-1.1738,-0.8595,-0.8624,-0.8603,-0.8552,-0.8484,-0.8566,-0.8623,-1.1332,-1.2483,-1.245,-1.245,-1.2443,-1.2554,-1.2467,-1.2366,-1.2318,-1.2074,-1.1959,-1.1911,-1.1884,-1.185,-1.1816,-1.1816,-1.1816,-1.1816,-1.1816,-1.1843,-1.1884,-1.1764,-0.9546,-0.822,-1.0946,-0.6977,-0.2354,-0.044,0.0,0.0,0.0,0.0,0.0,0.0,0.0,0.0,-1.0482,-1.0263,-0.7399,-0.0728,0.0,0.1601,0.5518,0.9133,0.0,0.0,1.0724,1.0521,1.0439,1.0392,1.0229,0.9937,0.9279,0.8481,0.0,0.0,0.0,0.0,0.0,0.0,0.0,0.0,0.0,0.0,0.0,0.0,0.0,0.0,0.0,0.0,0.0,0.0,0.0,0.0,0.0,0.0,-0.6849,-0.8132,-0.8724,-0.8755,-0.6598,-0.0718,0.0,0.0,0.0,0.0,-0.0918,-0.2906,-0.3269,-0.3311,-0.3331,-0.565,-0.8011,-1.0203,-1.2154,-1.2295,-1.0377,-1.0527,-1.1491,-1.3441,-1.1825,-1.06,-0.9928,-0.8544,-0.6441,0.0,-0.3833,-0.3831,-0.3987,-0.5862,-0.6682,0.0,0.0,0.0,0.0,0.0,0.0,-1.2836,-1.28,-1.2581,-1.2239,-1.0308,-1.0827,-1.2318,-1.2277,-1.2182,-1.2081,-1.2067,-1.206,-1.206,-1.206,-1.206,-1.2074,-1.1965,-0.876,-0.6033,-0.6664,-0.3163,0.0,0.0,0.0,0.0,0.0,0.0,0.0,0.0,-0.3262,0.0,0.0,-0.9937,-0.7486,-0.2934,-0.1034,0.1625,0.5421,0.0,0.0,0.0,0.0,0.0,1.031,0.0,0.0,0.0,0.0,0.0,0.0,0.0,0.0,0.0,0.6513,0.4594,0.0,0.0,0.0,0.0,0.0,0.0,0.0,0.0,0.0,0.0,0.0,0.0,0.0,0.0,0.0,0.0,-0.6096,-0.8444,-0.9627,-0.9136,-0.6547,-0.0735,0.0,0.0,0.0,0.0,0.0,0.0,0.0,0.0,0.0,0.0,0.0,0.0,0.0,-1.0452,-0.7468,-0.6432,-0.8015,-1.1917,-1.1911,-1.2109,-1.2493,-0.4941,-0.1056,0.0,0.0,0.0,-0.0349,-0.4361,-0.5929,-0.5903,-0.5876,-0.576,-0.5538,-0.5535,-0.8148,0.0,0.0,0.0,0.0,-0.7621,-0.8482,-1.1209,-1.166,-1.1952,-1.221,-1.2176,-1.2169,-1.2162,-1.2162,-1.2162,-1.2176,-1.2085,-0.898,-0.4853,-0.0913,0.0,0.0,0.0,0.0,0.0,0.0,0.0,0.0,0.0,-0.3301,0.0,-1.1147,-0.8573,-0.6086,-0.5194,0.0,0.0,0.5496,0.9163,1.1268,1.1199,1.0785,1.0426,1.0161,1.0019,0.9937,0.9924,0.9903,0.9774,0.9652,0.9665,0.9747,0.9868,0.8865,0.7446,0.0,0.0,0.0,0.0,0.0,0.0,0.0,0.0,0.0,0.0,0.0,0.0,0.0,0.0,0.0,-0.6281,-0.73,-0.8484,-0.9601,-0.5193,-0.139,-0.0155,0.0,0.0,0.0,0.0,0.0,0.0,0.0,0.0,0.0,0.0,0.0,-0.1204,-0.2095,-0.5635,-1.2015,-0.497,-0.1783,-0.2676,0.0,0.0,-0.3034,-0.8778,-0.7335,0.0,0.0,0.0,-0.0,-0.0884,-0.1227,-0.1216,-0.138,-0.1197,-0.1185,-0.1183,-0.1847,-0.2995,-0.6591,-1.023,-1.2408,-0.7807,-0.4519,-0.3058,-0.6431,-0.9956,0.0,-1.2668,-1.2807,-1.2786,0.0,-1.2786,-1.28,-1.2529,-0.9218,-0.5041,-0.0948,0.0,0.0,0.0,0.0,0.0,0.0,0.0,0.0,0.0,-0.3584,-0.7629,-1.1788,-1.1183,-0.8136,-0.1804,0.257,0.5452,0.6162,0.9432,1.1429,1.1362,1.1043,1.0833,1.0778,1.0744,1.067,1.0548,1.0426,1.031,1.0195,1.031,1.0419,1.05,1.0602,0.9868,0.0,0.0,0.0,0.0,0.0,0.0,0.0,0.0,0.0,0.0,0.0,0.0,0.0,0.0,-0.3181,-0.3506,-0.3868,-0.4207,-0.4775,-0.2059,0.0,0.0,0.0,0.0,0.0,0.0,0.0,0.0,0.0,0.0,0.0,0.0,0.0,0.0,0.0,-0.2137,-0.6592,-0.2327,0.0,0.0,0.0,0.0,-0.018,-0.5027,-0.4489,0.0,0.0,0.0,0.0,0.0,0.0,0.0,0.0,0.0,0.0,0.0,0.0,-0.0341,-0.2543,-0.4898,-0.6227,-0.3838,-0.1652,-0.0328,-0.245,-0.4717,-0.729,-1.1696,-1.3003,-1.2983,-1.2969,-1.2969,-1.2836,-1.2708,-1.1022,-0.7733,-0.129,0.0,0.0,0.0,0.0,0.0,0.0,0.0,0.0,0.0,-0.3623,-0.7853,-1.2018,-1.2072,-0.9623,-0.3499,0.0767,0.4773,0.9031,1.0915,1.1714,1.1518,1.1369,1.1287,1.1287,1.1287,1.1246,1.1172,1.1097,1.1023,1.0948,1.1023,1.1097,1.1165,1.1323,1.1135,0.0,0.0,0.0,0.0,0.0,0.0,0.0,0.0,0.0,0.0,0.0,0.0,0.0,0.0,0.0,0.0,0.0,0.0,0.0,0.0,0.0,0.0,0.0,0.0,0.0,0.0,0.0,0.0,0.0,0.0,0.0,0.0,0.0,0.0,0.0,0.0,0.0,0.0,0.0,0.0,0.0,0.0,0.0,0.0,0.0,0.0,0.0,0.0,0.0,0.0,0.0,0.0,0.0,0.0,0.0,0.0,0.0,0.0,0.0,0.0,0.0,0.0,0.0,0.0,0.0,0.0,-0.1473,-0.8495,-1.1781,-1.3105,-1.3071,-1.2923,-1.295,-1.2976,-1.2814,-1.0319,-0.1796,0.0,0.0,0.0,0.0,0.0,0.0,0.0,0.0,0.0,-0.3649,-0.7755,-1.1927,-1.2338,-1.0526,-0.6319,-0.2336,0.3123,1.0697,1.1684,1.1898,1.1714,1.1708,1.1708,1.1708,1.1708,1.1708,1.1708,1.1708,1.1708,1.1708,1.1735,1.1748,1.1755,1.1932,1.183,0.1292,0.0,0.0,0.0,0.0,0.0,0.0,0.0,0.0,0.0,0.0,0.0,0.0,0.0,0.0,0.0,0.0,0.0,0.0,0.0,0.0,0.0,0.0,0.0,0.0,0.0,0.0,0.0,0.0,0.0,0.0,0.0,0.0,0.0,0.0,0.0,0.0,0.0,0.0,0.0,0.0,0.0,0.0,0.0,0.0,0.0,0.0,0.0,0.0,0.0,0.0,0.0,0.0,0.0,0.0,0.0,0.0,0.0,0.0,0.0,0.0,0.0,0.0,0.0,0.0,0.0,-0.0169,-0.1173,-0.719,-1.3278,-1.3278,-1.3278,-1.3291,-1.3325,-1.3397,-1.0782,-0.1983,0.0,0.0,0.0,0.0,0.0,0.0,0.0,0.0,0.0,-0.3587,-0.7799,-1.1921,-1.2542,-1.0796,-0.6711,-0.25,0.1868,0.6616,1.0287,1.2354,1.2026,1.2013,1.2013,1.2013,1.2013,1.2013,1.2013,1.2013,1.2013,1.2013,1.2149,1.2216,1.2223,1.2373,1.2073,0.1047,0.0,0.0,0.0,0.0,0.0,0.0,0.0,0.0,0.0,0.0,0.0,0.0,0.0,0.0,0.0,0.0,0.0,0.0,0.0,0.0,0.0,0.0,0.0,0.0,0.0,0.0,0.0,0.0,0.0,0.0,0.0,0.0,0.0,0.0,0.0,0.0,0.0,0.0,0.0,0.0,0.0,0.0,0.0,0.0,0.0,0.0,0.0,0.0,0.0,0.0,0.0,0.0,0.0,0.0,0.0,0.0,0.0,0.0,0.0,0.0,0.0,0.0,0.0,0.0,0.0,0.0,0.0,-0.2733,-0.6154,-0.8901,-1.1504,-1.3442,-1.3455,-0.938,-0.456,-0.0844,0.0,0.0,0.0,0.0,0.0,0.0,0.0,-0.0811,-0.3537,-0.5439,-0.7991,-1.2211,-1.2668,-1.0067,-0.3351,-0.1119,0.1755,0.6181,1.0329,1.2698,1.2589,1.2583,1.2583,1.2583,1.2583,1.2583,1.2583,1.2583,1.2583,1.2583,1.2664,1.2548,1.2554,1.2702,1.2496,0.0666,0.0,0.0,0.0,0.0,0.0,0.0,0.0,0.0,0.0,0.0,0.0,0.0,0.0,0.0,0.0,0.0,0.0,0.0,0.0,0.0,0.0,0.0,0.0,0.0,0.0,0.0,0.0,0.0,0.0,0.0,0.0,0.0,0.0,0.0,0.0,0.0,0.0,0.0,0.0,0.0,0.0,0.0,0.0,0.0,0.0,0.0,0.0,0.0,0.0,0.0,0.0,0.0,0.0,0.0,0.0,0.0,0.0,0.0,0.0,0.0,0.0,0.0,0.0,0.0,0.0,0.0,0.0,0.0,-0.0693,-0.3985,-0.7295,-0.9759,-0.9759,-0.4668,0.0,0.0,0.0,0.0,0.0,0.0,0.0,0.0,0.0,-0.1479,-0.6092,-0.6724,-0.8328,-1.2559,-1.3017,-1.0045,-0.259,-0.0649,0.1299,0.4533,0.991,1.303,1.2976,1.2969,1.2963,1.2963,1.2963,1.2963,1.2963,1.2963,1.2963,1.2976,1.2876,1.2262,1.0981,1.2383,1.2953,0.0,0.0,0.0,0.0,0.0,0.0,0.0,0.0,0.0,0.0,0.0,0.0,0.0,0.0,0.0,0.0,0.0,0.0,0.0,0.0,0.0,0.0,0.0,0.0,0.0,0.0,0.0,0.0,0.0,0.0,0.0,0.0,0.0,0.0,0.0,0.0,0.0,0.0,0.0,0.0,0.0,0.0,0.0,0.0,0.0,0.0,0.0,0.0,0.0,0.0,0.0,0.0,0.0,0.0,0.0,0.0,0.0,0.0,0.0,0.0,0.0,0.0,0.0,0.0,0.0,0.0,0.0,0.0,0.0,-0.0,-0.0174,-0.0348,-0.0348,-0.0348,-0.0174,0.0,0.0,0.0,0.0,0.0,0.0,0.0,0.0,0.0,-0.1515,-0.6068,-0.6717,-0.8314,-1.2754,-1.3185,-1.1356,-0.6637,-0.2428,0.0,0.0162,0.828,1.3367,1.3178,1.2983,1.2963,1.2963,1.2963,1.2963,1.2963,1.2963,1.2976,1.2842,1.2983,1.0782,0.653,1.125,1.3311,0.0,0.0,0.0,0.0,0.0,0.0,0.0,0.0,0.0,0.0,0.0,0.0,0.0,0.0,0.0,0.0,0.0,0.0,0.0,0.0,0.0,0.0,0.0,0.0,0.0,0.0,0.0,0.0,0.0,0.0,0.0,0.0,0.0,0.0,0.0,0.0,0.0,0.0,0.0,0.0,0.0,0.0,0.0,0.0,0.0,0.0,0.0,0.0,0.0,0.0,0.0,0.0,0.0,0.0,0.0,0.0,0.0,0.0,0.0,0.0,0.0,0.0,0.0,0.0,0.0,0.0,0.0,0.0,0.0,0.0,0.0,0.0,0.0,0.0,0.0,0.0,0.0,0.0,0.0,0.0,0.0,0.0,0.0,0.0,-0.1547,-0.6179,-0.9333,-1.1742,-1.3137,-1.3295,-1.2636,-1.1146,-0.4477,0.0,0.0,0.5471,1.0128,1.3137,1.337,1.3403,1.3403,1.3492,1.3546,1.3546,1.3566,1.3412,1.3425,1.3343,1.2545,1.0854,0.656,0.7641,0.0,0.0,0.0,0.0,0.0,0.0,0.0,0.0,0.0,0.0,0.0,0.0,0.0,0.0,0.0,0.0,0.0,0.0,0.0,0.0,0.0,0.0,0.0,0.0,0.0,0.0,0.0,0.0,0.0,0.0,0.0,0.0,0.0,0.0,0.0,0.0,0.0,0.0,0.0,0.0,0.0,0.0,0.0,0.0,0.0,0.0,0.0,0.0,0.0,0.0,0.0,0.0,0.0,0.0,0.0,0.0,0.0,0.0,0.0,0.0,0.0,0.0,0.0,0.0,0.0,0.0,0.0,0.0,0.0,0.0,0.0,0.0,0.0,0.0,0.0,0.0,0.0,0.0,0.0,0.0,0.0,0.0,0.0,0.0,-0.1562,-0.6403,-1.0816,-1.3641,-1.3566,-1.358,-1.3439,-1.3479,-0.6789,-0.1697,-0.017,0.2714,0.6951,1.3115,1.3519,1.3715,1.3702,1.379,1.3844,1.3686,1.3707,1.3727,1.3574,1.3441,1.172,0.8407,0.2623,0.3156,0.0,0.0,0.0,0.0,0.0,0.0,0.0,0.0,0.0,0.0,0.0,0.0,0.0,0.0,0.0,0.0,0.0,0.0,0.0,0.0,0.0,0.0,0.0,0.0,0.0,0.0,0.0,0.0,0.0,0.0,0.0,0.0,0.0,0.0,0.0,0.0,0.0,0.0,0.0,0.0,0.0,0.0,0.0,0.0,0.0,0.0,0.0,0.0,0.0,0.0,0.0,0.0,0.0,0.0,0.0,0.0,0.0,0.0,0.0,0.0,0.0,0.0,0.0,0.0,0.0,0.0,0.0,0.0,0.0,0.0,0.0,0.0,0.0,0.0,0.0,0.0,0.0,0.0,0.0,0.0,0.0,0.0,0.0,0.0,-0.1565,-0.6413,-1.1134,-1.4119,-1.3851,-1.3838,-1.3693,-1.3409,-0.9362,-0.4848,-0.0348,0.0,0.381,1.2884,1.3568,1.3713,1.3851,1.3865,1.3878,1.374,1.374,1.3601,1.3487,1.2954,0.8415,0.0,0.0,0.0,0.0,0.0,0.0,0.0,0.0,0.0,0.0,0.0,0.0,0.0,0.0,0.0,0.0,0.0,0.0,0.0,0.0,0.0,0.0,0.0,0.0,0.0,0.0,0.0,0.0,0.0,0.0,0.0,0.0,0.0,0.0,0.0,0.0,0.0,0.0,0.0,0.0,0.0,0.0,0.0,0.0,0.0,0.0,0.0,0.0,0.0,0.0,0.0,0.0,0.0,0.0,0.0,0.0,0.0,0.0,0.0,0.0,0.0,0.0,0.0,0.0,0.0,0.0,0.0,0.0,0.0,0.0,0.0,0.0,0.0,0.0,0.0,0.0,0.0,0.0,0.0,0.0,0.0,0.0,0.0,0.0,0.0,0.0,0.0,-0.1601,-0.6384,-1.1207,-1.4183,-1.3878,-1.3838,-1.3858,-1.3899,-0.9525,-0.4843,-0.0347,0.0,0.2596,0.849,1.2062,1.3874,1.4014,1.415,1.4224,1.4231,1.4108,1.4142,1.3978,0.6951,0.2317,0.0,0.0,0.0,0.0,0.0,0.0,0.0,0.0,0.0,0.0,0.0,0.0,0.0,0.0,0.0,0.0,0.0,0.0,0.0,0.0,0.0,0.0,0.0,0.0,0.0,0.0,0.0,0.0,0.0,0.0,0.0,0.0,0.0,0.0,0.0,0.0,0.0,0.0,0.0,0.0,0.0,0.0,0.0,0.0,0.0,0.0,0.0,0.0,0.0,0.0,0.0,0.0,0.0,0.0,0.0,0.0,0.0,0.0,0.0,0.0,0.0,0.0,0.0,0.0,0.0,0.0,0.0,0.0,0.0,0.0,0.0,-0.3052,-0.5386,-0.1077,0.0,0.0,0.0,0.0,0.0,0.0,0.0,0.0,0.0,0.0,0.0,0.0,0.0,-0.1614,-0.6433,-1.1298,-1.4312,-1.4075,-1.4041,-1.4055,-1.4095,-1.162,-0.7381,-0.0527,0.0,0.1055,0.3861,1.0434,1.4231,1.4197,1.4299,1.3261,1.1099,1.3146,1.2258,0.809,0.2692,0.0,0.0,0.0,0.0,0.0,0.0,0.0,0.0,0.0,0.0,0.0,0.0,0.0,0.0,0.0,0.0,0.0,0.0,0.0,0.0,0.0,0.0,0.0,0.0,0.0,0.0,0.0,0.0,0.0,0.0,0.0,0.0,0.0,0.0,0.0,0.0,0.0,0.0,0.0,0.0,0.0,0.0,0.0,0.0,0.0,0.0,0.0,0.0,0.0,0.0,0.0,0.0,0.0,0.0,0.0,0.0,0.0,0.0,0.0,0.0,0.0,0.0,0.0,0.0,0.0,0.0,0.0,0.0,0.0,0.0,0.0,0.0,-0.5926,-1.0804,-0.3771,-0.0897,0.0,0.0,0.0,0.0,0.0,0.0,0.0,0.0,0.0,0.0,0.0,0.0,-0.1434,-0.5541,-1.0758,-1.438,-1.4312,-1.4306,-1.4312,-1.434,-1.438,-1.0585,-0.1788,-0.0359,0.0,0.0,0.8417,1.3655,1.4182,1.436,1.2366,0.8052,1.0968,0.8269,0.0,0.0,0.0,0.0,0.0,0.0,0.0,0.0,0.0,0.0,0.0,0.0,0.0,0.0,0.0,0.0,0.0,0.0,0.0,0.0,0.0,0.0,0.0,0.0,0.0,0.0,0.0,0.0,0.0,0.0,0.0,0.0,0.0,0.0,0.0,0.0,0.0,0.0,0.0,0.0,0.0,0.0,0.0,0.0,0.0,0.0,0.0,0.0,0.0,0.0,0.0,0.0,0.0,0.0,0.0,0.0,0.0,0.0,0.0,0.0,0.0,0.0,0.0,0.0,0.0,0.0,0.0,0.0,0.0,0.0,0.0,0.0,0.0,0.0,-0.1256,-0.3951,-1.0107,-0.5934,0.0,0.0,0.0,0.0,0.0,0.0,0.0,0.0,0.0,0.0,0.0,0.0,-0.0359,-0.1073,-0.8778,-1.4387,-1.4346,-1.4319,-1.4299,-1.4306,-1.4367,-1.2028,-0.6433,-0.2328,0.0,0.0,0.5184,1.0209,1.4209,1.4216,1.3866,1.3158,0.6105,0.1616,0.0,0.0,0.0,0.0,0.0,0.0,0.1158,0.0,0.0,0.0,0.0,0.0,0.0,0.0,0.0,0.0,0.0,0.0,0.0,0.0,0.0,0.0,0.0,0.0,0.0,0.0,0.0,0.0,0.0,0.0,0.0,0.0,0.0,0.0,0.0,0.0,0.0,0.0,0.0,0.0,0.0,0.0,0.0,0.0,0.0,0.0,0.0,0.0,0.0,0.0,0.0,0.0,0.0,0.0,0.0,0.0,0.0,0.0,0.0,0.0,0.0,0.0,0.0,0.0,0.0,0.0,0.0,0.0,0.0,0.0,0.0,0.0,0.0,0.0,0.0,-0.2151,-1.1748,-1.0824,-0.6108,-0.1257,0.0,0.0,0.0,0.0,0.0,0.0,0.0,0.0,0.0,0.0,0.0,0.0,-0.6082,-1.1471,-1.3991,-1.4319,-1.4299,-1.4299,-1.4346,-1.2372,-0.7506,-0.2684,0.0,0.0,0.2146,0.6624,1.4064,1.4249,1.4256,1.4276,0.4873,0.0,0.0,0.0,0.0,0.0,0.0,0.0,0.218,0.0,0.0,0.0,0.0,0.0,0.0,0.0,0.0,0.0,0.0,0.0,0.0,0.0,0.0,0.0,0.0,0.0,0.0,0.0,0.0,0.0,0.0,0.0,0.0,0.0,0.0,0.0,0.0,0.0,0.0,0.0,0.0,0.0,0.0,0.0,0.0,0.0,0.0,0.0,0.0,0.0,0.0,0.0,0.0,0.0,0.0,0.0,0.0,0.0,0.0,0.0,0.0,0.0,0.0,0.0,0.0,0.0,0.0,0.0,0.0,0.0,0.0,0.0,0.0,0.0,0.0,0.0,0.0,-0.1791,-0.9191,-1.1183,-0.9353,-0.1795,0.0,0.0,0.0,0.0,0.0,0.0,0.0,0.0,0.0,0.0,0.0,0.0,-0.4111,-0.8761,-1.3636,-1.4326,-1.4299,-1.4299,-1.4333,-1.2722,-0.8947,-0.3396,0.0,0.0,0.0,0.3406,1.084,1.322,1.3418,1.1246,0.3827,0.0,0.0,0.0,0.0,0.0,0.0,0.0,0.2197,0.0,0.0,0.0,0.0,0.0,0.0,0.0,0.0,0.0,0.0,0.0,0.0,0.0,0.0,0.0,0.0,0.0,0.0,0.0,0.0,0.0,0.0,0.0,0.0,0.0,0.0,0.0,0.0,0.0,0.0,0.0,0.0,0.0,0.0,0.0,0.0,0.0,0.0,0.0,0.0,0.0,0.0,0.0,0.0,0.0,0.0,0.0,0.0,0.0,0.0,0.0,0.0,0.0,0.0,0.0,0.0,0.0,0.0,0.0,0.0,0.0,0.0,0.0,0.0,0.0,0.0,0.0,0.0,-0.0179,-0.1077,-0.1257,-0.1077,-0.018,0.0,0.0,0.0,0.0,0.0,0.0,0.0,0.0,0.0,0.0,0.0,0.0,-0.4114,-0.8765,-1.3668,-1.434,-1.4299,-1.4299,-1.4333,-1.4182,-1.3668,-0.5186,0.0,0.0,0.0,0.036,0.1274,0.9671,1.0268,0.1477,0.037,0.0,0.0,0.0,0.0,0.0,0.0,0.0,0.0844,0.0,0.0,0.0,0.0,0.0,0.0,0.0,0.0,0.0,0.0,0.0,0.0,0.0,0.0,0.0,0.0,0.0,0.0,0.0,0.0,0.0,0.0,0.0,0.0,0.0,0.0,0.0,0.0,0.0,0.0,0.0,0.0,0.0,0.0,0.0,0.0,0.0,0.0,0.0,0.0,0.0,0.0,0.0,0.0,0.0,0.0,0.0,0.0,0.0,0.0,0.0,0.0,0.0,0.0,0.0,0.0,0.0,0.0,0.0,0.0,0.0,0.0,0.0,0.0,0.0,0.0,0.0,0.0,0.0,0.0,0.0,0.0,0.0,0.0,0.0,0.0,0.0,0.0,0.0,0.0,0.0,0.0,0.0,0.0,0.0,-0.399,-0.8869,-1.3913,-1.4529,-1.4462,-1.4557,-1.4421,-1.438,-1.4343,-0.8132,-0.3078,-0.0183,0.0,0.0,0.0,0.368,0.3871,0.0,0.0,0.0,0.0,0.0,0.0,0.0,0.0,0.0,0.0,0.0,0.0,0.0,0.0,0.0,0.0,0.0,0.0,0.0,0.0,0.0,0.0,0.0,0.0,0.0,0.0,0.0,0.0,0.0,0.0,0.0,0.0,0.0,0.0,0.0,0.0,0.0,0.0,0.0,0.0,0.0,0.0,0.0,0.0,0.0,0.0,0.0,0.0,0.0,0.0,0.0,0.0,0.0,0.0,0.0,0.0,0.0,0.0,0.0,0.0,0.0,0.0,0.0,0.0,0.0,0.0,0.0,0.0,0.0,0.0,0.0,0.0,0.0,0.0,0.0,0.0,0.0,0.0,0.0,0.0,0.0,0.0,0.0,0.0,0.0,0.0,0.0,0.0,0.0,0.0,0.0,0.0,0.0,0.0,0.0,-0.422,-0.8969,-1.4081,-1.4685,-1.4618,-1.4726,-1.4557,-1.4496,-1.4477,-0.9862,-0.5122,-0.037,0.0,0.0,0.0,0.0,0.0,0.0,0.0,0.0,0.0,0.0,0.0,0.0,0.0,0.0,0.0,0.0,0.0,0.0,0.0,0.0,0.0,0.0,0.0,0.0,0.0,0.0,0.0,0.0,0.0,0.0,0.0,0.0,0.0,0.0,0.0,0.0,0.0,0.0,0.0,0.0,0.0,0.0,0.0,0.0,0.0,0.0,0.0,0.0,0.0,0.0,0.0,0.0,0.0,0.0,0.0,0.0,0.0,0.0,0.0,0.0,0.0,0.0,0.0,0.0,0.0,0.0,0.0,0.0,0.0,0.0,0.0,0.0,0.0,0.0,0.0,0.0,0.0,0.0,0.0,0.0,0.0,0.0,0.0,0.0,0.0,0.0,0.0,0.0,0.0,0.0,0.0,0.0,0.0,0.0,0.0,0.0,0.0,0.0,0.0,0.0,-0.4244,-0.9403,-1.4087,-1.478,-1.474,-1.474,-1.4733,-1.4746,-1.4598,-0.9949,-0.5156,-0.0369,0.0,0.0,0.0,0.0,0.0,0.0,0.0,0.0,0.0,0.0,0.0,0.0,0.0,0.0,0.0,0.0,0.0,0.0,0.0,0.0,0.0,0.0,0.0,0.0,0.0,0.0,0.0,0.0,0.0,0.0,0.0,0.0,0.0,0.0,0.0,0.0,0.0,0.0,0.0,0.0,0.0,0.0,0.0,0.0,0.0,0.0,0.0,0.0,0.0,0.0,0.0,0.0,0.0,0.0,0.0,0.0,0.0,0.0,0.0,0.0,0.0,0.0,0.0,0.0,0.0,0.0,0.0,0.0,0.0,0.0,0.0,0.0,0.0,0.0,0.0,0.0,0.0,0.0,0.0,0.0,0.0,0.0,0.0,0.0,0.0,0.0,0.0,0.0,0.0,0.0,0.0,0.0,0.0,0.0,0.0,0.0,0.0,0.0,0.0,0.0,-0.1312,-0.5419,-1.399,-1.4839,-1.4957,-1.5031,-1.5045,-1.5018,-1.4765,-1.327,-0.8792,-0.0564,0.0,0.0,0.0,0.0,0.0,0.0,0.0,0.0,0.0,0.0,0.0,0.0,0.0,0.0,0.0,0.0,0.0,0.0,0.0,0.0,0.0,0.0,0.0,0.0,0.0,0.0,0.0,0.0,0.0,0.0,0.0,0.0,0.0,0.0,0.0,0.0,0.0,0.0,0.0,0.0,0.0,0.0,0.0,0.0,0.0,0.0,0.0,0.0,0.0,0.0,0.0,0.0,0.0,0.0,0.0,0.0,0.0,0.0,0.0,0.0,0.0,0.0,0.0,0.0,0.0,0.0,0.0,0.0,0.0,0.0,0.0,0.0,0.0,0.0,0.0,0.0,0.0,0.0,0.0,0.0,0.0,0.0,0.0,0.0,0.0,0.0,0.0,0.0,0.0,0.0,0.0,0.0,0.0,0.0,0.0,0.0,0.0,0.0,0.0,0.0,0.0,-0.302,-1.1232,-1.3839,-1.5126,-1.5174,-1.5181,-1.5153,-1.5086,-1.4939,-1.136,-0.3415,-0.1143,0.0,0.0,0.0,0.0,0.0,0.0,0.0,0.0,0.0,0.0,0.0,0.0,0.0,0.0,0.0,0.0,0.0,0.0,0.0,0.0,0.0,0.0,0.0,0.0,0.0,0.0,0.0,0.0,0.0,0.0,0.0,0.0,0.0,0.0,0.0,0.0,0.0,0.0,0.0,0.0,0.0,0.0,0.0,0.0,0.0,0.0,0.0,0.0,0.0,0.0,0.0,0.0,0.0,0.0,0.0,0.0,0.0,0.0,0.0,0.0,0.0,0.0,0.0,0.0,0.0,0.0,0.0,0.0,0.0,0.0,0.0,0.0,0.0,0.0,0.0,0.0,0.0,0.0,0.0,0.0,0.0,0.0,0.0,0.0,0.0,0.0,0.0,0.0,0.0,0.0,0.0,0.0,0.0,0.0,0.0,0.0,0.0,0.0,0.0,0.0,-0.1899,-0.7024,-1.1983,-1.5235,-1.5187,-1.5194,-1.5201,-1.5201,-1.5262,-1.2968,-0.7974,-0.2855,0.0,0.0,0.0,0.0,0.0,0.0,0.0,0.0,0.0,0.0,0.0,0.0,0.0,0.0,0.0,0.0,0.0,0.0,0.0,0.0,0.0,0.0,0.0,0.0,0.0,0.0,0.0,0.0,0.0,0.0,0.0,0.0,0.0,0.0,0.0,0.0,0.0,0.0,0.0,0.0,0.0,0.0,0.0,0.0,0.0,0.0,0.0,0.0,0.0,0.0,0.0,0.0,0.0,0.0,0.0,0.0,0.0,0.0,0.0,0.0,0.0,0.0,0.0,0.0,0.0,0.0,0.0,0.0,0.0,0.0,0.0,0.0,0.0,0.0,0.0,0.0,0.0,0.0,0.0,0.0,0.0,0.0,0.0,0.0,0.0,0.0,0.0,0.0,0.0,0.0,0.0,0.0,0.0,0.0,0.0,0.0,0.0,0.0,0.0,0.0,-0.1904,-0.7024,-1.1999,-1.5262,-1.5194,-1.5289,-1.5357,-1.5357,-1.5296,-1.2951,-0.7974,-0.285,0.0,0.0,0.0,0.0,0.0,0.0,0.0,0.0,0.0,0.0,0.0,0.0,0.0,0.0,0.0,0.0,0.0,0.0,0.0,0.0,0.0,0.0,0.0,0.0,0.0,0.0,0.0,0.0,0.0,0.0,0.0,0.0,0.0,0.0,0.0,0.0,0.0,0.0,0.0,0.0,0.0,0.0,0.0,0.0,0.0,0.0,0.0,0.0,0.0,0.0,0.0,0.0,0.0,0.0,0.0,0.0,0.0,0.0,0.0,0.0,0.0,0.0,0.0,0.0,0.0,0.0,0.0,0.0,0.0,0.0,0.0,0.0,0.0,0.0,0.0,0.0,0.0,0.0,0.0,0.0,0.0,0.0,0.0,0.0,0.0,0.0,0.0,0.0,0.0,0.0,0.0,0.0,0.0,0.0,0.0,0.0,0.0,0.0,0.0,0.0,-0.1918,-0.7074,-1.2133,-1.5472,-1.5398,-1.5466,-1.5513,-1.5513,-1.5466,-1.4075,-1.1185,-0.4041,0.0,0.0,0.0,0.0,0.0,0.0,0.0,0.0,0.0,0.0,0.0,0.0,0.0,0.0,0.0,0.0,0.0,0.0,0.0,0.0,0.0,0.0,0.0,0.0,0.0,0.0,0.0,0.0,0.0,0.0,0.0,0.0,0.0,0.0,0.0,0.0,0.0,0.0,0.0,0.0,0.0,0.0,0.0,0.0,0.0,0.0,0.0,0.0,0.0,0.0,0.0,0.0,0.0,0.0,0.0,0.0,0.0,0.0,0.0,0.0,0.0,0.0,0.0,0.0,0.0,0.0,0.0,0.0,0.0,0.0,0.0,0.0,0.0,0.0,0.0,0.0,0.0,0.0,0.0,0.0,0.0,0.0,0.0,0.0,0.0,0.0,0.0,0.0,0.0,0.0,0.0,0.0,0.0,0.0,0.0,0.0,0.0,0.0,0.0,0.0,-0.1937,-0.734,-1.2493,-1.5716,-1.5649,-1.5655,-1.5669,-1.5669,-1.5696,-1.5535,-1.5394,-0.6465,-0.0784,-0.0,0.0,0.0,0.0,0.0,0.0,0.0,0.0,0.0,0.0,0.0,0.0,0.0,0.0,0.0,0.0,0.0,0.0,0.0,0.0,0.0,0.0,0.0,0.0,0.0,0.0,0.0,0.0,0.0,0.0,0.0,0.0,0.0,0.0,0.0,0.0,0.0,0.0,0.0,0.0,0.0,0.0,0.0,0.0,0.0,0.0,0.0,0.0,0.0,0.0,0.0,0.0,0.0,0.0,0.0,0.0,0.0,0.0,0.0,0.0,0.0,0.0,0.0,0.0,0.0,0.0,0.0,0.0,0.0,0.0,0.0,0.0,0.0,0.0,0.0,0.0,0.0,0.0,0.0,0.0,0.0,0.0,0.0,0.0,0.0,0.0,0.0,0.0,0.0,0.0,0.0,0.0,0.0,0.0,0.0,0.0,0.0,0.0,0.0,-0.1956,-0.7213,-1.2737,-1.5918,-1.5649,-1.575,-1.5818,-1.5818,-1.594,-1.6029,-1.587,-1.0058,-0.4514,-0.0199,0.0,0.0,0.0,0.0,0.0,0.0,0.0,0.0,0.0,0.0,0.0,0.0,0.0,0.0,0.0,0.0,0.0,0.0,0.0,0.0,0.0,0.0,0.0,0.0,0.0,0.0,0.0,0.0,0.0,0.0,0.0,0.0,0.0,0.0,0.0,0.0,0.0,0.0,0.0,0.0,0.0,0.0,0.0,0.0,0.0,0.0,0.0,0.0,0.0,0.0,0.0,0.0,0.0,0.0,0.0,0.0,0.0,0.0,0.0,0.0,0.0,0.0,0.0,0.0,0.0,0.0,0.0,0.0,0.0,0.0,0.0,0.0,0.0,0.0,0.0,0.0,0.0,0.0,0.0,0.0,0.0,0.0,0.0,0.0,0.0,0.0,0.0,0.0,0.0,0.0,0.0,0.0,0.0,0.0,0.0,0.0,0.0,0.0,-0.1975,-0.7285,-1.2705,-1.5967,-1.5886,-1.5934,-1.5974,-1.5974,-1.6042,-1.4875,-1.1869,-0.6575,-0.2389,-0.0,0.0,0.0,0.0,0.0,0.0,0.0,0.0,0.0,0.0,0.0,0.0,0.0,0.0,0.0,0.0,0.0,0.0,0.0,0.0,0.0,0.0,0.0,0.0,0.0,0.0,0.0,0.0,0.0,0.0,0.0,0.0,0.0,0.0,0.0,0.0,0.0,0.0,0.0,0.0,0.0,0.0,0.0,0.0,0.0,0.0,0.0,0.0,0.0,0.0,0.0,0.0,0.0,0.0,0.0,0.0,0.0,0.0,0.0,0.0,0.0,0.0,0.0,0.0,0.0,0.0,0.0,0.0,0.0,0.0,0.0,0.0,0.0,0.0,0.0,0.0,0.0,0.0,0.0,0.0,0.0,0.0,0.0,0.0,0.0,0.0,0.0,0.0,0.0,0.0,0.0,0.0,0.0,0.0,0.0,0.0,0.0,0.0,0.0,-0.1396,-0.5568,-1.2048,-1.6171,-1.6103,-1.609,-1.6083,-1.6083,-1.6083,-1.4271,-1.0062,-0.3618,0.0,0.0,0.0,0.0,0.0,0.0,0.0,0.0,0.0,0.0,0.0,0.0,0.0,0.0,0.0,0.0,0.0,0.0,0.0,0.0,0.0,0.0,0.0,0.0,0.0,0.0,0.0,0.0,0.0,0.0,0.0,0.0,0.0,0.0,0.0,0.0,0.0,0.0,0.0,0.0,0.0,0.0,0.0,0.0,0.0,0.0,0.0,0.0,0.0,0.0,0.0,0.0,0.0,0.0,0.0,0.0,0.0,0.0,0.0,0.0,0.0,0.0,0.0,0.0,0.0,0.0,0.0,0.0,0.0,0.0,0.0,0.0,0.0,0.0,0.0,0.0,0.0,0.0,0.0,0.0,0.0,0.0,0.0,0.0,0.0,0.0,0.0,0.0,0.0,0.0,0.0,0.0,0.0,0.0,0.0,0.0,0.0,0.0,0.0,0.0,-0.0202,-0.0603,-0.9669,-1.6185,-1.6137,-1.6103,-1.6083,-1.6083,-1.6083,-1.5911,-1.5577,-0.5834,0.0,0.0,0.0,0.0,0.0,0.0,0.0,0.0,0.0,0.0,0.0,0.0,0.0,0.0,0.0,0.0,0.0,0.0,0.0,0.0,0.0,0.0,0.0,0.0,0.0,0.0,0.0,0.0,0.0,0.0,0.0,0.0,0.0,0.0,0.0,0.0,0.0,0.0,0.0,0.0,0.0,0.0,0.0,0.0,0.0,0.0,0.0,0.0,0.0,0.0,0.0,0.0,0.0,0.0,0.0,0.0,0.0,0.0,0.0,0.0,0.0,0.0,0.0,0.0,0.0,0.0,0.0,0.0,0.0,0.0,0.0,0.0,0.0,0.0,0.0,0.0,0.0,0.0,0.0,0.0,0.0,0.0,0.0,0.0,0.0,0.0,0.0,0.0,0.0,0.0,0.0,0.0,0.0,0.0,0.0,0.0,0.0,0.0,0.0,0.0,-0.1211,-0.4632,-0.8457,-1.2289,-1.5731,-1.6103,-1.6083,-1.6083,-1.6083,-1.6117,-1.6198,-0.9059,-0.3421,-0.0202,0.0,0.0,0.0,0.0,0.0,0.0,0.0,0.0,0.0,0.0,0.0,0.0,0.0,0.0,0.0,0.0,0.0,0.0,0.0,0.0,0.0,0.0,0.0,0.0,0.0,0.0,0.0,0.0,0.0,0.0,0.0,0.0,0.0,0.0,0.0,0.0,0.0,0.0,0.0,0.0,0.0,0.0,0.0,0.0,0.0,0.0,0.0,0.0,0.0,0.0,0.0,0.0,0.0,0.0,0.0,0.0,0.0,0.0,0.0,0.0,0.0,0.0,0.0,0.0,0.0,0.0,0.0,0.0,0.0,0.0,0.0,0.0,0.0,0.0,0.0,0.0,0.0,0.0,0.0,0.0,0.0,0.0,0.0,0.0,0.0,0.0,0.0,0.0,0.0,0.0,0.0,0.0,0.0,0.0,0.0,0.0,0.0,0.0,-0.2019,-0.727,-0.8055,-1.0049,-1.5505,-1.6096,-1.6083,-1.6083,-1.6083,-1.611,-1.6178,-1.1073,-0.5633,-0.0202,0.0,0.0,0.0,0.0,0.0,0.0,0.0,0.0,0.0,0.0,0.0,0.0,0.0,0.0,0.0,0.0,0.0,0.0,0.0,0.0,0.0,0.0,0.0,0.0,0.0,0.0,0.0,0.0,0.0,0.0,0.0,0.0,0.0,0.0,0.0,0.0,0.0,0.0,0.0,0.0,0.0,0.0,0.0,0.0,0.0,0.0,0.0,0.0,0.0,0.0,0.0,0.0,0.0,0.0,0.0,0.0,0.0,0.0,0.0,0.0,0.0,0.0,0.0,0.0,0.0,0.0,0.0,0.0,0.0,0.0,0.0,0.0,0.0,0.0,0.0,0.0,0.0,0.0,0.0,0.0,0.0,0.0,0.0,0.0,0.0,0.0,0.0,0.0,0.0,0.0,0.0,0.0,0.0,0.0,0.0,0.0,0.0,0.0,-0.202,-0.7288,-0.8065,-1.0045,-1.5479,-1.6083,-1.6083,-1.6083,-1.6083,-1.6096,-1.613,-1.1063,-0.5633,-0.0202,0.0,0.0,0.0,0.0,0.0,0.0,0.0,0.0,0.0,0.0,0.0,0.0,0.0,0.0,0.0,0.0,0.0,0.0,0.0,0.0,0.0,0.0,0.0,0.0,0.0,0.0,0.0,0.0,0.0,0.0,0.0,0.0,0.0,0.0,0.0,0.0,0.0,0.0,0.0,0.0,0.0,0.0,0.0,0.0,0.0,0.0,0.0,0.0,0.0,0.0,0.0,0.0,0.0,0.0,0.0,0.0,0.0,0.0,0.0,0.0,0.0,0.0,0.0,0.0,0.0,0.0,0.0,0.0,0.0,0.0,0.0,0.0,0.0,0.0,0.0,0.0,0.0,0.0,0.0,0.0,0.0,0.0,0.0,0.0,0.0,0.0,0.0,0.0,0.0,0.0,0.0,0.0,0.0,0.0,0.0,0.0,0.0,0.0,-0.2018,-0.7251,-1.1297,-1.4319,-1.5884,-1.6083,-1.6083,-1.6083,-1.6083,-1.6096,-1.613,-1.4531,-0.9673,-0.0403,0.0,0.0,0.0,0.0,0.0,0.0,0.0,0.0,0.0,0.0,0.0,0.0,0.0,0.0,0.0,0.0,0.0,0.0,0.0,0.0,0.0,0.0,0.0,0.0,0.0,0.0,0.0,0.0,0.0,0.0,0.0,0.0,0.0,0.0,0.0,0.0,0.0,0.0,0.0,0.0,0.0,0.0,0.0,0.0,0.0,0.0,0.0,0.0,0.0,0.0,0.0,0.0,0.0,0.0,0.0,0.0,0.0,0.0,0.0,0.0,0.0,0.0,0.0,0.0,0.0,0.0,0.0,0.0,0.0,0.0,0.0,0.0,0.0,0.0,0.0,0.0,0.0,0.0,0.0,0.0,0.0,0.0,0.0,0.0,0.0,0.0,0.0,0.0,0.0,0.0,0.0,0.0,0.0,0.0,0.0,0.0,0.0,0.0,-0.121,-0.4423,-1.1493,-1.6178,-1.611,-1.609,-1.6083,-1.6083,-1.6083,-1.609,-1.611,-1.6171,-1.231,-0.3618,-0.121,0.0,0.0,0.0,0.0,0.0,0.0,0.0,0.0,0.0,0.0,0.0,0.0,0.0,0.0,0.0,0.0,0.0,0.0,0.0,0.0,0.0,0.0,0.0,0.0,0.0,0.0,0.0,0.0,0.0,0.0,0.0,0.0,0.0,0.0,0.0,0.0,0.0,0.0,0.0,0.0,0.0,0.0,0.0,0.0,0.0,0.0,0.0,0.0,0.0,0.0,0.0,0.0,0.0,0.0,0.0,0.0,0.0,0.0,0.0,0.0,0.0,0.0,0.0,0.0,0.0,0.0,0.0,0.0,0.0,0.0,0.0,0.0,0.0,0.0,0.0,0.0,0.0,0.0,0.0,0.0,0.0,0.0,-0.0191,-0.116,-0.078,0.0,0.0,0.0,0.0,0.0,0.0,0.0,0.0,0.0,0.0,0.0,0.0,0.0,0.0,-0.9063,-1.557,-1.6137,-1.6103,-1.6083,-1.6083,-1.6083,-1.6083,-1.6083,-1.6157,-1.373,-0.8242,-0.2821,0.0,0.0,0.0,0.0,0.0,0.0,0.0,0.0,0.0,0.0,0.0,0.0,0.0,0.0,0.0,0.0,0.0,0.0,0.0,0.0,0.0,0.0,0.0,0.0,0.0,0.0,0.0,0.0,0.0,0.0,0.0,0.0,0.0,0.0,0.0,0.0,0.0,0.0,0.0,0.0,0.0,0.0,0.0,0.0,0.0,0.0,0.0,0.0,0.0,0.0,0.0,0.0,0.0,0.0,0.0,0.0,0.0,0.0,0.0,0.0,0.0,0.0,0.0,0.0,0.0,0.0,0.0,0.0,0.0,0.0,0.0,0.0,0.0,0.0,0.0,0.0,0.0,0.0,0.0,0.0,0.0,0.0,-0.2109,-1.0578,-0.6087,0.0,0.0,0.0,0.0,0.0,0.0,0.0,0.0,0.0,0.0,0.0,0.0,0.0,0.0,-0.5628,-1.1273,-1.5724,-1.6103,-1.6083,-1.6083,-1.6083,-1.6083,-1.6083,-1.6157,-1.373,-0.8242,-0.2821,0.0,0.0,0.0,0.0,0.0,0.0,0.0,0.0,0.0,0.0,0.0,0.0,0.0,0.0,0.0,0.0,0.0,0.0,0.0,0.0,0.0,0.0,0.0,0.0,0.0,0.0,0.0,0.0,0.0,0.0,0.0,0.0,0.0,0.0,0.0,0.0,0.0,0.0,0.0,0.0,0.0,0.0,0.0,0.0,0.0,0.0,0.0,0.0,0.0,0.0,0.0,0.0,0.0,0.0,0.0,0.0,0.0,0.0,0.0,0.0,0.0,0.0,0.0,0.0,0.0,0.0,0.0,0.0,0.0,0.0,0.0,0.0,0.0,0.0,0.0,0.0,0.0,0.0,0.0,0.0,0.0,0.0,-0.1343,-0.7043,-0.8064,-0.6324,-0.1205,0.0,0.0,0.0,0.0,0.0,0.0,0.0,0.0,0.0,0.0,0.0,0.0,-0.2414,-0.7236,-1.5344,-1.613,-1.6096,-1.6083,-1.6083,-1.6083,-1.6083,-1.6157,-1.373,-0.8242,-0.2834,0.0,0.0,0.0,0.0,0.0,0.0,0.0,0.0,0.0,0.0,0.0,0.0,0.0,0.0,0.0,0.0,0.0,0.0,0.0,0.0,0.0,0.0,0.0,0.0,0.0,0.0,0.0,0.0,0.0,0.0,0.0,0.0,0.0,0.0,0.0,0.0,0.0,0.0,0.0,0.0,0.0,0.0,0.0,0.0,0.0,0.0,0.0,0.0,0.0,0.0,0.0,0.0,0.0,0.0,0.0,0.0,0.0,0.0,0.0,0.0,0.0,0.0,0.0,0.0,0.0,0.0,0.0,0.0,0.0,0.0,0.0,0.0,0.0,0.0,0.0,0.0,0.0,0.0,0.0,0.0,0.0,0.0,0.0,0.0,-0.826,-1.372,-0.4626,-0.1413,0.0,0.0,0.0,0.0,0.0,0.0,0.0,0.0,0.0,0.0,0.0,0.0,-0.3421,-1.2315,-1.4931,-1.6123,-1.6096,-1.6083,-1.6083,-1.6083,-1.6178,-1.3759,-0.8263,-0.2852,0.0,0.0,0.0,0.0,0.0,0.0,0.0,0.0,0.0,0.0,0.0,0.0,0.0,0.0,0.0,0.0,0.0,0.0,0.0,0.0,0.0,0.0,0.0,0.0,0.0,0.0,0.0,0.0,0.0,0.0,0.0,0.0,0.0,0.0,0.0,0.0,0.0,0.0,0.0,0.0,0.0,0.0,0.0,0.0,0.0,0.0,0.0,0.0,0.0,0.0,0.0,0.0,0.0,0.0,0.0,0.0,0.0,0.0,0.0,0.0,0.0,0.0,0.0,0.0,0.0,0.0,0.0,0.0,0.0,0.0,0.0,0.0,0.0,0.0,0.0,0.0,0.0,0.0,0.0,0.0,0.0,0.0,0.0,0.0,-0.8267,-1.573,-1.4319,-0.6645,0.0,0.0,0.0,0.0,0.0,0.0,0.0,0.0,0.0,0.0,0.0,0.0,-0.0605,-0.2012,-1.0454,-1.613,-1.6123,-1.6096,-1.6083,-1.6083,-1.6246,-1.3863,-0.814,-0.2875,0.0,0.0,0.0,0.0,0.0,0.0,0.0,0.0,0.0,0.0,0.0,0.0,0.0,0.0,0.0,0.0,0.0,0.0,0.0,0.0,0.0,0.0,0.0,0.0,0.0,0.0,0.0,0.0,0.0,0.0,0.0,0.0,0.0,0.0,0.0,0.0,0.0,0.0,0.0,0.0,0.0,0.0,0.0,0.0,0.0,0.0,0.0,0.0,0.0,0.0,0.0,0.0,0.0,0.0,0.0,0.0,0.0,0.0,0.0,0.0,0.0,0.0,0.0,0.0,0.0,0.0,0.0,0.0,0.0,0.0,0.0,0.0,0.0,0.0,0.0,0.0,0.0,0.0,0.0,0.0,0.0,0.0,0.0,0.0,-0.8242,-1.5303,-1.2274,-1.0305,-0.7273,-0.121,0.0,0.0,0.0,0.0,0.0,0.0,0.0,0.0,0.0,0.0,0.0,0.0,-0.7032,-1.2879,-1.5924,-1.6103,-1.6083,-1.6083,-1.6178,-1.5252,-1.2888,-0.4526,0.0,0.0,0.0,0.0,0.0,0.0,0.0,0.0,0.0,0.0,0.0,0.0,0.0,0.0,0.0,0.0,0.0,0.0,0.0,0.0,0.0,0.0,0.0,0.0,0.0,0.0,0.0,0.0,0.0,0.0,0.0,0.0,0.0,0.0,0.0,0.0,0.0,0.0,0.0,0.0,0.0,0.0,0.0,0.0,0.0,0.0,0.0,0.0,0.0,0.0,0.0,0.0,0.0,0.0,0.0,0.0,0.0,0.0,0.0,0.0,0.0,0.0,0.0,0.0,0.0,0.0,0.0,0.0,0.0,0.0,0.0,0.0,0.0,0.0,0.0,0.0,0.0,0.0,0.0,0.0,0.0,0.0,0.0,0.0,-0.7235,-1.3279,-1.0663,-1.215,-1.1349,-0.1818,0.0,0.0,0.0,0.0,0.0,0.0,0.0,0.0,0.0,0.0,0.0,0.0,-0.3619,-0.8643,-1.5538,-1.6117,-1.609,-1.6083,-1.6178,-1.6307,-1.6483,-0.7247,-0.1463,-0.0,0.0,0.0,0.0,0.0,0.0,0.0,0.0,0.0,0.0,0.0,0.0,0.0,0.0,0.0,0.0,0.0,0.0,0.0,0.0,0.0,0.0,0.0,0.0,0.0,0.0,0.0,0.0,0.0,0.0,0.0,0.0,0.0,0.0,0.0,0.0,0.0,0.0,0.0,0.0,0.0,0.0,0.0,0.0,0.0,0.0,0.0,0.0,0.0,0.0,0.0,0.0,0.0,0.0,0.0,0.0,0.0,0.0,0.0,0.0,0.0,0.0,0.0,0.0,0.0,0.0,0.0,0.0,0.0,0.0,0.0,0.0,0.0,0.0,0.0,0.0,0.0,0.0,0.0,0.0,0.0,0.0,0.0,-0.4294,-0.9699,-1.4556,-1.1914,-0.6841,-0.1009,0.0,0.0,0.0,0.0,0.0,0.0,0.0,0.0,0.0,0.0,0.0,0.0,-0.0201,-0.4626,-1.5176,-1.6157,-1.6117,-1.6083,-1.6347,-1.6339,-1.622,-1.094,-0.5514,-0.0,0.0,0.0,0.0,0.0,0.0,0.0,0.0,0.0,0.0,0.0,0.0,0.0,0.0,0.0,0.0,0.0,0.0,0.0,0.0,0.0,0.0,0.0,0.0,0.0,0.0,0.0,0.0,0.0,0.0,0.0,0.0,0.0,0.0,0.0,0.0,0.0,0.0,0.0,0.0,0.0,0.0,0.0,0.0,0.0,0.0,0.0,0.0,0.0,0.0,0.0,0.0,0.0,0.0,0.0,0.0,0.0,0.0,0.0,0.0,0.0,0.0,0.0,0.0,0.0,0.0,0.0,0.0,0.0,0.0,0.0,0.0,0.0,0.0,0.0,0.0,0.0,0.0,0.0,0.0,0.0,0.0,0.0,-0.1388,-0.52,-1.4208,-1.4611,-1.0507,-0.1817,0.0,0.0,0.0,0.0,0.0,0.0,0.0,0.0,0.0,0.0,0.0,0.0,0.0,-0.3015,-1.0271,-1.4107,-1.6157,-1.6225,-1.6327,-1.6299,-1.6359,-1.1131,-0.5698,-0.0213,0.0,0.0,0.0,0.0,0.0,0.0,0.0,0.0,0.0,0.0,0.0,0.0,0.0,0.0,0.0,0.0,0.0,0.0,0.0,0.0,0.0,0.0,0.0,0.0,0.0,0.0,0.0,0.0,0.0,0.0,0.0,0.0,0.0,0.0,0.0,0.0,0.0,0.0,0.0,0.0,0.0,0.0,0.0,0.0,0.0,0.0,0.0,0.0,0.0,0.0,0.0,0.0,0.0,0.0,0.0,0.0,0.0,0.0,0.0,0.0,0.0,0.0,0.0,0.0,0.0,0.0,0.0,0.0,0.0,0.0,0.0,0.0,0.0,0.0,0.0,0.0,0.0,0.0,0.0,0.0,0.0,0.0,0.0,-0.2007,-0.9109,-1.3598,-1.2966,-0.202,0.0,0.0,0.0,0.0,0.0,0.0,0.0,0.0,0.0,0.0,0.0,0.0,0.0,-0.1409,-0.5023,-1.1879,-1.6205,-1.632,-1.6361,-1.6524,-1.6627,-1.1145,-0.5696,-0.0213,0.0,0.0,0.0,0.0,0.0,0.0,0.0,0.0,0.0,0.0,0.0,0.0,0.0,0.0,0.0,0.0,0.0,0.0,0.0,0.0,0.0,0.0,0.0,0.0,0.0,0.0,0.0,0.0,0.0,0.0,0.0,0.0,0.0,0.0,0.0,0.0,0.0,0.0,0.0,0.0,0.0,0.0,0.0,0.0,0.0,0.0,0.0,0.0,0.0,0.0,0.0,0.0,0.0,0.0,0.0,0.0,0.0,0.0,0.0,0.0,0.0,0.0,0.0,0.0,0.0,0.0,0.0,0.0,0.0,0.0,0.0,0.0,0.0,0.0,0.0,0.0,0.0,0.0,0.0,0.0,0.0,0.0,0.0,0.0,0.0,-0.8287,-1.2558,-0.202,0.0,0.0,0.0,0.0,0.0,0.0,0.0,0.0,0.0,0.0,0.0,0.0,0.0,0.0,0.0,-0.9673,-1.6045,-1.6361,-1.6463,-1.6612,-1.6607,-1.1629,-0.594,-0.0212,0.0,0.0,0.0,0.0,0.0,0.0,0.0,0.0,0.0,0.0,0.0,0.0,0.0,0.0,0.0,0.0,0.0,0.0,0.0,0.0,0.0,0.0,0.0,0.0,0.0,0.0,0.0,0.0,0.0,0.0,0.0,0.0,0.0,0.0,0.0,0.0,0.0,0.0,0.0,0.0,0.0,0.0,0.0,0.0,0.0,0.0,0.0,0.0,0.0,0.0,0.0,0.0,0.0,0.0,0.0,0.0,0.0,0.0,0.0,0.0,0.0,0.0,0.0,0.0,0.0,0.0,0.0,0.0,0.0,0.0,0.0,0.0,0.0,0.0,0.0,0.0,0.0,0.0,0.0,0.0,0.0,0.0,0.0,0.0,0.0,-0.2423,-0.3635,-0.0606,0.0,0.0,0.0,0.0,0.0,0.0,0.0,0.0,0.0,0.0,0.0,0.0,0.0,0.0,0.0,-0.6233,-1.1964,-1.6095,-1.6524,-1.6659,-1.6958,-1.5537,-0.9996,-0.0212,0.0,0.0,0.0,0.0,0.0,0.0,0.0,0.0,0.0,0.0,0.0,0.0,0.0,0.0,0.0,0.0,0.0,0.0,0.0,0.0,0.0,0.0,0.0,0.0,0.0,0.0,0.0,0.0,0.0,0.0,0.0,0.0,0.0,0.0,0.0,0.0,0.0,0.0,0.0,0.0,0.0,0.0,0.0,0.0,0.0,0.0,0.0,0.0,0.0,0.0,0.0,0.0,0.0,0.0,0.0,0.0,0.0,0.0,0.0,0.0,0.0,0.0,0.0,0.0,0.0,0.0,0.0,0.0,0.0,0.0,0.0,0.0,0.0,0.0,0.0,0.0,0.0,0.0,0.0,0.0,0.0,0.0,0.0,0.0,0.0,0.0,0.0,0.0,0.0,0.0,0.0,0.0,0.0,0.0,0.0,0.0,0.0,0.0,0.0,0.0,0.0,0.0,0.0,-0.2826,-0.7937,-1.5969,-1.6632,-1.6754,-1.6998,-1.7066,-1.2777,-0.382,-0.1277,0.0,0.0,0.0,0.0,0.0,0.0,0.0,0.0,0.0,0.0,0.0,0.0,0.0,0.0,0.0,0.0,0.0,0.0,0.0,0.0,0.0,0.0,0.0,0.0,0.0,0.0,0.0,0.0,0.0,0.0,0.0,0.0,0.0,0.0,0.0,0.0,0.0,0.0,0.0,0.0,0.0,0.0,0.0,0.0,0.0,0.0,0.0,0.0,0.0,0.0,0.0,0.0,0.0,0.0,0.0,0.0,0.0,0.0,0.0,0.0,0.0,0.0,0.0,0.0,0.0,0.0,0.0,0.0,0.0,0.0,0.0,0.0,0.0,0.0,0.0,0.0,0.0,0.0,0.0,0.0,0.0,0.0,0.0,0.0,0.0,0.0,0.0,0.0,0.0,0.0,0.0,0.0,0.0,0.0,0.0,0.0,0.0,0.0,0.0,0.0,0.0,0.0,0.0,-0.4294,-1.4105,-1.5892,-1.6849,-1.6978,-1.706,-1.4281,-0.8699,-0.2977,0.0,0.0,0.0,0.0,0.0,0.0,0.0,0.0,0.0,0.0,0.0,0.0,0.0,0.0,0.0,0.0,0.0,0.0,0.0,0.0,0.0,0.0,0.0,0.0,0.0,0.0,0.0,0.0,0.0,0.0,0.0,0.0,0.0,0.0,0.0,0.0,0.0,0.0,0.0,0.0,0.0,0.0,0.0,0.0,0.0,0.0,0.0,0.0,0.0,0.0,0.0,0.0,0.0,0.0,0.0,0.0,0.0,0.0,0.0,0.0,0.0,0.0,0.0,0.0,0.0,0.0,0.0,0.0,0.0,0.0,0.0,0.0,0.0,0.0,0.0,0.0,0.0,0.0,0.0,0.0,0.0,0.0,0.0,0.0,0.0,0.0,0.0,0.0,0.0,0.0,0.0,0.0,0.0,0.0,0.0,0.0,0.0,0.0,0.0,0.0,0.0,0.0,0.0,-0.1015,-0.3098,-1.1601,-1.6754,-1.7012,-1.7073,-1.4281,-0.8699,-0.2977,0.0,0.0,0.0,0.0,0.0,0.0,0.0,0.0,0.0,0.0,0.0,0.0,0.0,0.0,0.0,0.0,0.0,0.0,0.0,0.0,0.0,0.0,0.0,0.0,0.0,0.0,0.0,0.0,0.0,0.0,0.0,0.0,0.0,0.0,0.0,0.0,0.0,0.0,0.0,0.0,0.0,0.0,0.0,0.0,0.0,0.0,0.0,0.0,0.0,0.0,0.0,0.0,0.0,0.0,0.0,0.0,0.0,0.0,0.0,0.0,0.0,0.0,0.0,0.0,0.0,0.0,0.0,0.0,0.0,0.0,0.0,0.0,0.0,0.0,0.0,0.0,0.0,0.0,0.0,0.0,0.0,0.0,0.0,0.0,0.0,0.0,0.0,0.0,0.0,0.0,0.0,0.0,0.0,0.0,0.0,0.0,0.0,0.0,0.0,0.0,0.0,0.0,0.0,0.0,0.0,-1.0657,-1.6924,-1.7026,-1.708,-1.2994,-0.4456,-0.149,0.0,0.0,0.0,0.0,0.0,0.0,0.0,0.0,0.0,0.0,0.0,0.0,0.0,0.0,0.0,0.0,0.0,0.0,0.0,0.0,0.0,0.0,0.0,0.0,0.0,0.0,0.0,0.0,0.0,0.0,0.0,0.0,0.0,0.0,0.0,0.0,0.0,0.0,0.0,0.0,0.0,0.0,0.0,0.0,0.0,0.0,0.0,0.0,0.0,0.0,0.0,0.0,0.0,0.0,0.0,0.0,0.0,0.0,0.0,0.0,0.0,0.0,0.0,0.0,0.0,0.0,0.0,0.0,0.0,0.0,0.0,0.0,0.0,0.0,0.0,0.0,0.0,0.0,0.0,0.0,0.0,0.0,0.0,0.0,0.0,0.0,0.0,0.0,0.0,0.0,0.0,0.0,0.0,0.0,0.0,0.0,0.0,0.0,0.0,0.0,0.0,0.0,0.0,0.0,0.0,-0.9682,-1.5338,-1.5313,-1.6426,-1.1708,-0.0212,0.0,0.0,0.0,0.0,0.0,0.0,0.0,0.0,0.0,0.0,0.0,0.0,0.0,0.0,0.0,0.0,0.0,0.0,0.0,0.0,0.0,0.0,0.0,0.0,0.0,0.0,0.0,0.0,0.0,0.0,0.0,0.0,0.0,0.0,0.0,0.0,0.0,0.0,0.0,0.0,0.0,0.0,0.0,0.0,0.0,0.0,0.0,0.0,0.0,0.0,0.0,0.0,0.0,0.0,0.0,0.0,0.0,0.0,0.0,0.0,0.0,0.0,0.0,0.0,0.0,0.0,0.0,0.0,0.0,0.0,0.0,0.0,0.0,0.0,0.0,0.0,0.0,0.0,0.0,0.0,0.0,0.0,0.0,0.0,0.0,0.0,0.0,0.0,0.0,0.0,0.0,0.0,0.0,0.0,0.0,0.0,0.0,0.0,0.0,0.0,0.0,0.0,0.0,0.0,0.0,0.0,-0.6026,-0.9423,-0.9541,-1.4281,-1.1708,-0.0212,0.0,0.0,0.0,0.0,0.0,0.0,0.0,0.0,0.0,0.0,0.0,0.0,0.0,0.0,0.0,0.0,0.0,0.0,0.0,0.0,0.0,0.0,0.0,0.0,0.0,0.0,0.0,0.0,0.0,0.0,0.0,0.0,0.0,0.0,0.0,0.0,0.0,0.0,0.0,0.0,0.0,0.0,0.0,0.0,0.0,0.0,0.0,0.0,0.0,0.0,0.0,0.0,0.0,0.0,0.0,0.0,0.0,0.0,0.0,0.0,0.0,0.0,0.0,0.0,0.0,0.0,0.0,0.0,0.0,0.0,0.0,0.0,0.0,0.0,0.0,0.0,0.0,0.0,0.0,0.0,0.0,0.0,0.0,0.0,0.0,0.0,0.0,0.0,0.0,0.0,0.0,0.0,0.0,0.0,0.0,0.0,0.0,0.0,0.0,0.0,0.0,0.0,0.0,0.0,0.0,0.0,-0.2283,-0.6502,-1.3195,-1.5817,-1.3227,-0.5093,-0.1702,0.0,0.0,0.0,0.0,0.0,0.0,0.0,0.0,0.0,0.0,0.0,0.0,0.0,0.0,0.0,0.0,0.0,0.0,0.0,0.0,0.0,0.0,0.0,0.0,0.0,0.0,0.0,0.0,0.0,0.0,0.0,0.0,0.0,0.0,0.0,0.0,0.0,0.0,0.0,0.0,0.0,0.0,0.0,0.0,0.0,0.0,0.0,0.0,0.0,0.0,0.0,0.0,0.0,0.0,0.0,0.0,0.0,0.0,0.0,0.0,0.0,0.0,0.0,0.0,0.0,0.0,0.0,0.0,0.0,0.0,0.0,0.0,0.0,0.0,0.0,0.0,0.0,0.0,0.0,0.0,0.0,0.0,0.0,0.0,0.0,0.0,0.0,0.0,0.0,0.0,0.0,0.0,0.0,0.0,0.0,0.0,0.0,0.0,0.0,0.0,0.0,0.0,0.0,0.0,0.0,0.0,-0.4413,-1.4229,-1.6253,-1.432,-0.8699,-0.2977,0.0,0.0,0.0,0.0,0.0,0.0,0.0,0.0,0.0,0.0,0.0,0.0,0.0,0.0,0.0,0.0,0.0,0.0,0.0,0.0,0.0,0.0,0.0,0.0,0.0,0.0,0.0,0.0,0.0,0.0,0.0,0.0,0.0,0.0,0.0,0.0,0.0,0.0,0.0,0.0,0.0,0.0,0.0,0.0,0.0,0.0,0.0,0.0,0.0,0.0,0.0,0.0,0.0,0.0,0.0,0.0,0.0,0.0,0.0,0.0,0.0,0.0,0.0,0.0,0.0,0.0,0.0,0.0,0.0,0.0,0.0,0.0,0.0,0.0,0.0,0.0,0.0,0.0,0.0,0.0,0.0,0.0,0.0,0.0,0.0,0.0,0.0,0.0,0.0,0.0,0.0,0.0,0.0,0.0,0.0,0.0,0.0,0.0,0.0,0.0,0.0,0.0,0.0,0.0,0.0,0.0,-0.2723,-0.8587,-1.4035,-1.432,-0.8699,-0.2977,0.0,0.0,0.0,0.0,0.0,0.0,0.0,0.0,0.0,0.0,0.0,0.0,0.0,0.0,0.0,0.0,0.0,0.0,0.0,0.0,0.0,0.0,0.0,0.0,0.0,0.0,0.0,0.0,0.0,0.0,0.0,0.0,0.0,0.0,0.0,0.0,0.0,0.0,-0.2794,0.0,0.0,0.0,0.0,0.0,0.0,0.0,0.0,0.0,0.0,0.0,0.0,0.0,0.0,0.0,0.0,0.0,0.0,0.0,0.0,0.0,0.0,0.0,0.0,0.0,0.0,0.0,0.0,0.0,0.0,0.0,0.0,0.0,0.0,0.0,0.0,0.0,0.0,0.0,0.0,0.0,0.0,0.0,0.0,0.0,0.0,0.0,0.0,0.0,0.0,0.0,0.0,0.0,0.0,0.0,0.0,0.0,0.0,0.0,0.0,0.0,0.0,0.0,0.0,0.0,0.0,0.0,-0.0834,-0.2722,-1.1897,-1.6073,-1.4103,-0.4892,0.0,0.0,0.0,0.0,0.0,0.0,0.0,0.0,0.0,0.0,0.0,0.0,0.0,0.0,0.0,0.0,0.0,0.0,0.0,0.0,0.0,0.0,0.0,0.0,0.0,0.0,0.0,0.0,0.0,0.0,0.0,0.0,0.0,-0.7578,-0.8096,-0.4503,0.0,0.0,0.0,-0.2808,-0.016,0.0,0.0,0.0,0.0,0.0,0.0,0.0,0.0,0.0,0.0,0.0,0.0,0.0,0.0,0.0,0.0,0.0,0.0,0.0,0.0,0.0,0.0,0.0,0.0,0.0,0.0,0.0,0.0,0.0,0.0,0.0,0.0,0.0,0.0,0.0,0.0,0.0,0.0,0.0,0.0,0.0,0.0,0.0,0.0,0.0,0.0,0.0,0.0,0.0,0.0,0.0,0.0,0.0,0.0,0.0,0.0,0.0,0.0,0.0,0.0,0.0,0.0,0.0,0.0,0.0,0.0,0.0,-0.6985,-1.2833,-1.6956,-0.5749,0.0,0.0,0.0,0.0,0.0,0.0,0.0]}]]